Wetterdaten: Sonntag, 05.06.2022
Datum Zeit Temp. Aussen Temp. o. S. Temp +5cm Feuchte Auss Luftdruck Regen Sonnenschein Regendauer Solar Windben Empfang
05.06.2022 00:00 19,9 C 18,9 C 15,6 C 70 % 1017,9 hPa 0,0 l/m 0 min 0 min 0 W/m 6,4 km/h (2 Bft) 95,74 %
05.06.2022 00:02 19,9 C 18,9 C 15,6 C 70 % 1018,0 hPa 0,0 l/m 0 min 0 min 0 W/m 3,2 km/h (1 Bft) 11,11 %
05.06.2022 00:05 19,9 C 18,9 C 15,6 C 70 % 1018,1 hPa 0,0 l/m 0 min 0 min 0 W/m 9,7 km/h (2 Bft) 92,42 %
05.06.2022 00:08 19,9 C 18,9 C 15,6 C 70 % 1018,1 hPa 0,0 l/m 0 min 0 min 0 W/m 12,9 km/h (3 Bft) 97,14 %
05.06.2022 00:10 19,9 C 18,9 C 15,6 C 70 % 1018,2 hPa 0,0 l/m 0 min 0 min 0 W/m 6,4 km/h (2 Bft) 97,87 %
05.06.2022 00:12 19,9 C 18,9 C 15,6 C 70 % 1018,2 hPa 0,0 l/m 0 min 0 min 0 W/m 9,7 km/h (2 Bft) 97,87 %
05.06.2022 00:14 19,9 C 18,9 C 15,6 C 70 % 1018,3 hPa 0,0 l/m 0 min 0 min 0 W/m 9,7 km/h (2 Bft) 97,87 %
05.06.2022 00:16 19,9 C 18,9 C 15,6 C 70 % 1018,4 hPa 0,0 l/m 0 min 0 min 0 W/m 12,9 km/h (3 Bft) 100,00 %
05.06.2022 00:18 19,9 C 18,9 C 15,6 C 70 % 1018,4 hPa 0,0 l/m 0 min 0 min 0 W/m 6,4 km/h (2 Bft) 72,34 %
05.06.2022 00:20 19,8 C 18,9 C 15,6 C 70 % 1018,4 hPa 0,0 l/m 0 min 0 min 0 W/m 6,4 km/h (2 Bft) 80,00 %
05.06.2022 00:22 19,8 C 18,9 C 15,6 C 70 % 1018,4 hPa 0,0 l/m 0 min 0 min 0 W/m 6,4 km/h (2 Bft) 97,87 %
05.06.2022 00:24 19,8 C 18,9 C 15,6 C 70 % 1018,4 hPa 0,0 l/m 0 min 0 min 0 W/m 3,2 km/h (1 Bft) 95,74 %
05.06.2022 00:26 19,8 C 18,9 C 15,6 C 70 % 1018,3 hPa 0,0 l/m 0 min 0 min 0 W/m 6,4 km/h (2 Bft) 97,87 %
05.06.2022 00:28 19,8 C 18,9 C 15,6 C 70 % 1018,2 hPa 0,0 l/m 0 min 0 min 0 W/m 9,7 km/h (2 Bft) 95,65 %
05.06.2022 00:30 19,8 C 18,9 C 15,6 C 71 % 1018,2 hPa 0,0 l/m 0 min 0 min 0 W/m 3,2 km/h (1 Bft) 95,74 %
05.06.2022 00:32 19,7 C 18,9 C 15,6 C 71 % 1018,1 hPa 0,0 l/m 0 min 0 min 0 W/m 9,7 km/h (2 Bft) 95,74 %
05.06.2022 00:34 19,7 C 18,9 C 15,0 C 71 % 1018,0 hPa 0,0 l/m 0 min 0 min 0 W/m 6,4 km/h (2 Bft) 95,74 %
05.06.2022 00:36 19,7 C 18,9 C 15,0 C 71 % 1017,9 hPa 0,0 l/m 0 min 0 min 0 W/m 3,2 km/h (1 Bft) 95,74 %
05.06.2022 00:38 19,6 C 18,9 C 15,0 C 71 % 1018,0 hPa 0,0 l/m 0 min 0 min 0 W/m 6,4 km/h (2 Bft) 91,49 %
05.06.2022 00:40 19,6 C 18,9 C 15,0 C 71 % 1017,9 hPa 0,0 l/m 0 min 0 min 0 W/m 9,7 km/h (2 Bft) 95,65 %
05.06.2022 00:42 19,6 C 18,9 C 15,0 C 71 % 1017,9 hPa 0,0 l/m 0 min 0 min 0 W/m 6,4 km/h (2 Bft) 95,74 %
05.06.2022 00:44 19,6 C 18,9 C 15,0 C 71 % 1017,9 hPa 0,0 l/m 0 min 0 min 0 W/m 6,4 km/h (2 Bft) 95,74 %
05.06.2022 00:46 19,5 C 18,9 C 15,0 C 72 % 1018,0 hPa 0,0 l/m 0 min 0 min 0 W/m 6,4 km/h (2 Bft) 93,62 %
05.06.2022 00:48 19,4 C 18,3 C 15,0 C 72 % 1018,0 hPa 0,0 l/m 0 min 0 min 0 W/m 3,2 km/h (1 Bft) 95,74 %
05.06.2022 00:50 19,4 C 18,3 C 15,0 C 72 % 1018,0 hPa 0,0 l/m 0 min 0 min 0 W/m 3,2 km/h (1 Bft) 93,48 %
05.06.2022 00:52 19,4 C 18,3 C 15,0 C 72 % 1018,0 hPa 0,0 l/m 0 min 0 min 0 W/m 3,2 km/h (1 Bft) 97,87 %
05.06.2022 00:54 19,4 C 18,3 C 15,0 C 72 % 1018,0 hPa 0,0 l/m 0 min 0 min 0 W/m 3,2 km/h (1 Bft) 97,87 %
05.06.2022 00:56 19,3 C 18,3 C 15,0 C 73 % 1018,1 hPa 0,0 l/m 0 min 0 min 0 W/m 3,2 km/h (1 Bft) 95,74 %
05.06.2022 00:58 19,3 C 18,3 C 14,4 C 73 % 1018,1 hPa 0,0 l/m 0 min 0 min 0 W/m 3,2 km/h (1 Bft) 95,74 %
05.06.2022 01:00 19,3 C 18,3 C 14,4 C 72 % 1018,0 hPa 0,0 l/m 0 min 0 min 0 W/m 3,2 km/h (1 Bft) 97,87 %
05.06.2022 01:02 19,2 C 18,3 C 14,4 C 73 % 1018,0 hPa 0,0 l/m 0 min 0 min 0 W/m 3,2 km/h (1 Bft) 97,83 %
05.06.2022 01:04 19,2 C 18,3 C 14,4 C 73 % 1018,0 hPa 0,0 l/m 0 min 0 min 0 W/m 3,2 km/h (1 Bft) 97,87 %
05.06.2022 01:06 19,2 C 18,3 C 14,4 C 73 % 1017,9 hPa 0,0 l/m 0 min 0 min 0 W/m 3,2 km/h (1 Bft) 97,87 %
05.06.2022 01:08 19,1 C 18,3 C 14,4 C 73 % 1017,9 hPa 0,0 l/m 0 min 0 min 0 W/m 6,4 km/h (2 Bft) 97,87 %
05.06.2022 01:10 19,1 C 17,8 C 14,4 C 74 % 1017,8 hPa 0,0 l/m 0 min 0 min 0 W/m 3,2 km/h (1 Bft) 95,74 %
05.06.2022 01:12 19,0 C 17,8 C 14,4 C 74 % 1017,8 hPa 0,0 l/m 0 min 0 min 0 W/m 3,2 km/h (1 Bft) 97,87 %
05.06.2022 01:14 18,9 C 17,8 C 14,4 C 74 % 1017,7 hPa 0,0 l/m 0 min 0 min 0 W/m 3,2 km/h (1 Bft) 95,74 %
05.06.2022 01:16 18,9 C 17,8 C 14,4 C 74 % 1017,8 hPa 0,0 l/m 0 min 0 min 0 W/m 3,2 km/h (1 Bft) 100,00 %
05.06.2022 01:18 18,9 C 17,8 C 14,4 C 74 % 1017,8 hPa 0,0 l/m 0 min 0 min 0 W/m 3,2 km/h (1 Bft) 100,00 %
05.06.2022 01:20 18,8 C 17,8 C 14,4 C 74 % 1017,7 hPa 0,0 l/m 0 min 0 min 0 W/m 3,2 km/h (1 Bft) 100,00 %
05.06.2022 01:22 18,8 C 17,8 C 14,4 C 75 % 1017,8 hPa 0,0 l/m 0 min 0 min 0 W/m 3,2 km/h (1 Bft) 100,00 %
05.06.2022 01:24 18,8 C 17,8 C 13,9 C 75 % 1017,7 hPa 0,0 l/m 0 min 0 min 0 W/m 3,2 km/h (1 Bft) 97,87 %
05.06.2022 01:26 18,7 C 17,8 C 14,4 C 75 % 1017,7 hPa 0,0 l/m 0 min 0 min 0 W/m 3,2 km/h (1 Bft) 97,87 %
05.06.2022 01:28 18,7 C 17,8 C 13,9 C 76 % 1017,7 hPa 0,0 l/m 0 min 0 min 0 W/m 3,2 km/h (1 Bft) 100,00 %
05.06.2022 01:30 18,7 C 17,8 C 13,9 C 76 % 1017,7 hPa 0,0 l/m 0 min 0 min 0 W/m 3,2 km/h (1 Bft) 100,00 %
05.06.2022 01:32 18,6 C 17,8 C 13,9 C 76 % 1017,7 hPa 0,0 l/m 0 min 0 min 0 W/m 3,2 km/h (1 Bft) 97,87 %
05.06.2022 01:34 18,6 C 17,8 C 13,9 C 76 % 1017,7 hPa 0,0 l/m 0 min 0 min 0 W/m 3,2 km/h (1 Bft) 100,00 %
05.06.2022 01:36 18,5 C 17,2 C 13,9 C 76 % 1017,7 hPa 0,0 l/m 0 min 0 min 0 W/m 3,2 km/h (1 Bft) 100,00 %
05.06.2022 01:38 18,4 C 17,2 C 13,9 C 76 % 1017,7 hPa 0,0 l/m 0 min 0 min 0 W/m 3,2 km/h (1 Bft) 100,00 %
05.06.2022 01:40 18,4 C 17,2 C 13,9 C 76 % 1017,7 hPa 0,0 l/m 0 min 0 min 0 W/m 3,2 km/h (1 Bft) 100,00 %
05.06.2022 01:42 18,4 C 17,2 C 13,9 C 76 % 1017,7 hPa 0,0 l/m 0 min 0 min 0 W/m 3,2 km/h (1 Bft) 97,87 %
05.06.2022 01:44 18,3 C 17,2 C 13,9 C 76 % 1017,7 hPa 0,0 l/m 0 min 0 min 0 W/m 3,2 km/h (1 Bft) 100,00 %
05.06.2022 01:46 18,3 C 17,2 C 13,9 C 76 % 1017,7 hPa 0,0 l/m 0 min 0 min 0 W/m 3,2 km/h (1 Bft) 95,74 %
05.06.2022 01:48 18,3 C 17,2 C 13,9 C 76 % 1017,7 hPa 0,0 l/m 0 min 0 min 0 W/m 3,2 km/h (1 Bft) 100,00 %
05.06.2022 01:50 18,3 C 17,2 C 13,9 C 77 % 1017,7 hPa 0,0 l/m 0 min 0 min 0 W/m 3,2 km/h (1 Bft) 95,65 %
05.06.2022 01:52 18,3 C 17,2 C 13,9 C 77 % 1017,7 hPa 0,0 l/m 0 min 0 min 0 W/m 3,2 km/h (1 Bft) 100,00 %
05.06.2022 01:54 18,3 C 17,2 C 13,9 C 77 % 1017,7 hPa 0,0 l/m 0 min 0 min 0 W/m 3,2 km/h (1 Bft) 100,00 %
05.06.2022 01:56 18,2 C 17,2 C 13,9 C 77 % 1017,6 hPa 0,0 l/m 0 min 0 min 0 W/m 3,2 km/h (1 Bft) 100,00 %
05.06.2022 01:58 18,2 C 17,2 C 13,9 C 77 % 1017,6 hPa 0,0 l/m 0 min 0 min 0 W/m 3,2 km/h (1 Bft) 100,00 %
05.06.2022 02:00 18,2 C 17,2 C 13,9 C 77 % 1017,7 hPa 0,0 l/m 0 min 0 min 0 W/m 3,2 km/h (1 Bft) 97,87 %
05.06.2022 02:02 18,2 C 17,2 C 13,9 C 77 % 1017,7 hPa 0,0 l/m 0 min 0 min 0 W/m 3,2 km/h (1 Bft) 97,87 %
05.06.2022 02:04 18,2 C 17,2 C 13,9 C 77 % 1017,7 hPa 0,0 l/m 0 min 0 min 0 W/m 3,2 km/h (1 Bft) 100,00 %
05.06.2022 02:06 18,2 C 17,2 C 13,9 C 77 % 1017,7 hPa 0,0 l/m 0 min 0 min 0 W/m 3,2 km/h (1 Bft) 100,00 %
05.06.2022 02:08 18,2 C 17,2 C 13,9 C 78 % 1017,8 hPa 0,0 l/m 0 min 0 min 0 W/m 3,2 km/h (1 Bft) 95,74 %
05.06.2022 02:10 18,2 C 17,2 C 13,9 C 78 % 1017,8 hPa 0,0 l/m 0 min 0 min 0 W/m 3,2 km/h (1 Bft) 95,74 %
05.06.2022 02:12 18,1 C 17,2 C 13,9 C 78 % 1017,8 hPa 0,0 l/m 0 min 0 min 0 W/m 3,2 km/h (1 Bft) 95,74 %
05.06.2022 02:14 18,1 C 17,2 C 13,3 C 78 % 1017,6 hPa 0,0 l/m 0 min 0 min 0 W/m 3,2 km/h (1 Bft) 97,87 %
05.06.2022 02:16 18,1 C 16,7 C 13,3 C 78 % 1017,6 hPa 0,0 l/m 0 min 0 min 0 W/m 3,2 km/h (1 Bft) 95,65 %
05.06.2022 02:18 18,0 C 16,7 C 13,3 C 78 % 1017,6 hPa 0,0 l/m 0 min 0 min 0 W/m 6,4 km/h (2 Bft) 95,74 %
05.06.2022 02:20 17,9 C 16,7 C 13,3 C 78 % 1017,5 hPa 0,0 l/m 0 min 0 min 0 W/m 6,4 km/h (2 Bft) 95,74 %
05.06.2022 02:22 17,9 C 16,7 C 13,3 C 78 % 1017,5 hPa 0,0 l/m 0 min 0 min 0 W/m 3,2 km/h (1 Bft) 93,62 %
05.06.2022 02:24 17,9 C 16,7 C 13,3 C 78 % 1017,5 hPa 0,0 l/m 0 min 0 min 0 W/m 3,2 km/h (1 Bft) 95,74 %
05.06.2022 02:26 17,8 C 16,7 C 13,3 C 78 % 1017,6 hPa 0,0 l/m 0 min 0 min 0 W/m 3,2 km/h (1 Bft) 95,74 %
05.06.2022 02:28 17,8 C 16,7 C 13,3 C 78 % 1017,5 hPa 0,0 l/m 0 min 0 min 0 W/m 3,2 km/h (1 Bft) 95,65 %
05.06.2022 02:30 17,8 C 16,7 C 13,3 C 79 % 1017,6 hPa 0,0 l/m 0 min 0 min 0 W/m 3,2 km/h (1 Bft) 95,74 %
05.06.2022 02:32 17,8 C 16,7 C 13,3 C 79 % 1017,6 hPa 0,0 l/m 0 min 0 min 0 W/m 3,2 km/h (1 Bft) 95,74 %
05.06.2022 02:34 17,7 C 16,7 C 13,3 C 79 % 1017,5 hPa 0,0 l/m 0 min 0 min 0 W/m 3,2 km/h (1 Bft) 95,74 %
05.06.2022 02:36 17,7 C 16,7 C 13,3 C 79 % 1017,4 hPa 0,0 l/m 0 min 0 min 0 W/m 3,2 km/h (1 Bft) 95,74 %
05.06.2022 02:38 17,7 C 16,7 C 13,3 C 79 % 1017,4 hPa 0,0 l/m 0 min 0 min 0 W/m 6,4 km/h (2 Bft) 95,65 %
05.06.2022 02:40 17,7 C 16,7 C 13,3 C 79 % 1017,4 hPa 0,0 l/m 0 min 0 min 0 W/m 3,2 km/h (1 Bft) 93,62 %
05.06.2022 02:42 17,6 C 16,7 C 13,3 C 79 % 1017,3 hPa 0,0 l/m 0 min 0 min 0 W/m 3,2 km/h (1 Bft) 97,87 %
05.06.2022 02:44 17,6 C 16,7 C 12,8 C 79 % 1017,3 hPa 0,0 l/m 0 min 0 min 0 W/m 3,2 km/h (1 Bft) 97,87 %
05.06.2022 02:46 17,6 C 16,7 C 12,8 C 79 % 1017,4 hPa 0,0 l/m 0 min 0 min 0 W/m 3,2 km/h (1 Bft) 97,87 %
05.06.2022 02:48 17,6 C 16,7 C 12,8 C 80 % 1017,4 hPa 0,0 l/m 0 min 0 min 0 W/m 3,2 km/h (1 Bft) 97,87 %
05.06.2022 02:50 17,5 C 16,7 C 12,8 C 80 % 1017,5 hPa 0,0 l/m 0 min 0 min 0 W/m 3,2 km/h (1 Bft) 97,87 %
05.06.2022 02:52 17,5 C 16,1 C 12,8 C 80 % 1017,4 hPa 0,0 l/m 0 min 0 min 0 W/m 3,2 km/h (1 Bft) 100,00 %
05.06.2022 02:54 17,4 C 16,1 C 12,8 C 80 % 1017,4 hPa 0,0 l/m 0 min 0 min 0 W/m 3,2 km/h (1 Bft) 100,00 %
05.06.2022 02:56 17,4 C 16,1 C 12,8 C 80 % 1017,3 hPa 0,0 l/m 0 min 0 min 0 W/m 3,2 km/h (1 Bft) 100,00 %
05.06.2022 02:58 17,4 C 16,1 C 12,8 C 80 % 1017,3 hPa 0,0 l/m 0 min 0 min 0 W/m 6,4 km/h (2 Bft) 100,00 %
05.06.2022 03:00 17,3 C 16,1 C 12,8 C 80 % 1017,3 hPa 0,0 l/m 0 min 0 min 0 W/m 6,4 km/h (2 Bft) 100,00 %
05.06.2022 03:02 17,3 C 16,1 C 12,8 C 80 % 1017,3 hPa 0,0 l/m 0 min 0 min 0 W/m 3,2 km/h (1 Bft) 100,00 %
05.06.2022 03:04 17,2 C 16,1 C 12,8 C 80 % 1017,2 hPa 0,0 l/m 0 min 0 min 0 W/m 6,4 km/h (2 Bft) 100,00 %
05.06.2022 03:06 17,2 C 16,1 C 12,8 C 80 % 1017,2 hPa 0,0 l/m 0 min 0 min 0 W/m 3,2 km/h (1 Bft) 100,00 %
05.06.2022 03:08 17,1 C 16,1 C 12,8 C 80 % 1017,2 hPa 0,0 l/m 0 min 0 min 0 W/m 6,4 km/h (2 Bft) 100,00 %
05.06.2022 03:10 17,1 C 16,1 C 12,8 C 81 % 1017,1 hPa 0,0 l/m 0 min 0 min 0 W/m 3,2 km/h (1 Bft) 100,00 %
05.06.2022 03:12 17,1 C 16,1 C 12,8 C 81 % 1017,1 hPa 0,0 l/m 0 min 0 min 0 W/m 6,4 km/h (2 Bft) 100,00 %
05.06.2022 03:14 17,0 C 16,1 C 12,8 C 81 % 1017,1 hPa 0,0 l/m 0 min 0 min 0 W/m 6,4 km/h (2 Bft) 97,83 %
05.06.2022 03:16 17,0 C 16,1 C 12,8 C 81 % 1017,0 hPa 0,0 l/m 0 min 0 min 0 W/m 3,2 km/h (1 Bft) 100,00 %
05.06.2022 03:18 16,9 C 16,1 C 12,8 C 81 % 1017,0 hPa 0,0 l/m 0 min 0 min 0 W/m 3,2 km/h (1 Bft) 100,00 %
05.06.2022 03:20 16,9 C 15,6 C 12,8 C 81 % 1017,0 hPa 0,0 l/m 0 min 0 min 0 W/m 6,4 km/h (2 Bft) 100,00 %
05.06.2022 03:22 16,8 C 15,6 C 12,2 C 81 % 1017,1 hPa 0,0 l/m 0 min 0 min 0 W/m 6,4 km/h (2 Bft) 100,00 %
05.06.2022 03:24 16,8 C 15,6 C 12,2 C 81 % 1017,0 hPa 0,0 l/m 0 min 0 min 0 W/m 3,2 km/h (1 Bft) 100,00 %
05.06.2022 03:26 16,8 C 15,6 C 12,2 C 82 % 1017,0 hPa 0,0 l/m 0 min 0 min 0 W/m 3,2 km/h (1 Bft) 97,87 %
05.06.2022 03:28 16,7 C 15,6 C 12,2 C 82 % 1016,9 hPa 0,0 l/m 0 min 0 min 0 W/m 3,2 km/h (1 Bft) 97,83 %
05.06.2022 03:30 16,7 C 15,6 C 12,2 C 82 % 1016,8 hPa 0,0 l/m 0 min 0 min 0 W/m 6,4 km/h (2 Bft) 97,87 %
05.06.2022 03:32 16,7 C 15,6 C 12,2 C 82 % 1016,8 hPa 0,0 l/m 0 min 0 min 0 W/m 6,4 km/h (2 Bft) 95,74 %
05.06.2022 03:34 16,6 C 15,6 C 12,2 C 82 % 1016,8 hPa 0,0 l/m 0 min 0 min 0 W/m 3,2 km/h (1 Bft) 97,87 %
05.06.2022 03:36 16,6 C 15,6 C 12,2 C 82 % 1016,8 hPa 0,0 l/m 0 min 0 min 0 W/m 6,4 km/h (2 Bft) 97,87 %
05.06.2022 03:38 16,6 C 15,6 C 12,2 C 82 % 1016,8 hPa 0,0 l/m 0 min 0 min 0 W/m 3,2 km/h (1 Bft) 97,83 %
05.06.2022 03:40 16,6 C 15,6 C 12,2 C 82 % 1016,7 hPa 0,0 l/m 0 min 0 min 0 W/m 3,2 km/h (1 Bft) 97,87 %
05.06.2022 03:42 16,5 C 15,6 C 12,2 C 82 % 1016,7 hPa 0,0 l/m 0 min 0 min 0 W/m 6,4 km/h (2 Bft) 97,87 %
05.06.2022 03:44 16,5 C 15,6 C 12,2 C 82 % 1016,6 hPa 0,0 l/m 0 min 0 min 0 W/m 6,4 km/h (2 Bft) 97,87 %
05.06.2022 03:46 16,4 C 15,6 C 12,2 C 82 % 1016,7 hPa 0,0 l/m 0 min 0 min 0 W/m 3,2 km/h (1 Bft) 97,87 %
05.06.2022 03:48 16,4 C 15,6 C 12,2 C 83 % 1016,6 hPa 0,0 l/m 0 min 0 min 0 W/m 3,2 km/h (1 Bft) 97,87 %
05.06.2022 03:50 16,4 C 15,6 C 12,2 C 83 % 1016,6 hPa 0,0 l/m 0 min 0 min 0 W/m 6,4 km/h (2 Bft) 95,65 %
05.06.2022 03:52 16,3 C 15,6 C 12,2 C 83 % 1016,6 hPa 0,0 l/m 0 min 0 min 0 W/m 3,2 km/h (1 Bft) 97,87 %
05.06.2022 03:54 16,3 C 15,6 C 12,2 C 83 % 1016,5 hPa 0,0 l/m 0 min 0 min 0 W/m 3,2 km/h (1 Bft) 97,87 %
05.06.2022 03:56 16,3 C 15,6 C 12,2 C 83 % 1016,6 hPa 0,0 l/m 0 min 0 min 0 W/m 3,2 km/h (1 Bft) 97,87 %
05.06.2022 03:58 16,3 C 15,6 C 12,2 C 83 % 1016,5 hPa 0,0 l/m 0 min 0 min 0 W/m 6,4 km/h (2 Bft) 95,74 %
05.06.2022 04:00 16,3 C 15,6 C 12,2 C 83 % 1016,5 hPa 0,0 l/m 0 min 0 min 0 W/m 3,2 km/h (1 Bft) 95,74 %
05.06.2022 04:02 16,2 C 15,6 C 12,2 C 83 % 1016,5 hPa 0,0 l/m 0 min 0 min 0 W/m 3,2 km/h (1 Bft) 100,00 %
05.06.2022 04:04 16,2 C 15,6 C 12,2 C 83 % 1016,4 hPa 0,0 l/m 0 min 0 min 0 W/m 3,2 km/h (1 Bft) 95,74 %
05.06.2022 04:06 16,2 C 15,0 C 11,7 C 83 % 1016,4 hPa 0,0 l/m 0 min 0 min 0 W/m 6,4 km/h (2 Bft) 94,44 %
05.06.2022 04:08 16,2 C 15,0 C 11,7 C 84 % 1016,4 hPa 0,0 l/m 0 min 0 min 0 W/m 6,4 km/h (2 Bft) 91,43 %
05.06.2022 04:10 16,1 C 15,0 C 11,7 C 84 % 1016,4 hPa 0,0 l/m 0 min 0 min 0 W/m 3,2 km/h (1 Bft) 95,74 %
05.06.2022 04:12 16,1 C 15,0 C 11,7 C 84 % 1016,3 hPa 0,0 l/m 0 min 0 min 0 W/m 3,2 km/h (1 Bft) 95,74 %
05.06.2022 04:14 16,1 C 15,0 C 11,7 C 84 % 1016,3 hPa 0,0 l/m 0 min 0 min 0 W/m 3,2 km/h (1 Bft) 95,74 %
05.06.2022 04:16 16,1 C 15,0 C 11,7 C 84 % 1016,2 hPa 0,0 l/m 0 min 0 min 0 W/m 6,4 km/h (2 Bft) 95,74 %
05.06.2022 04:18 16,0 C 15,0 C 11,7 C 84 % 1016,2 hPa 0,0 l/m 0 min 0 min 0 W/m 6,4 km/h (2 Bft) 95,65 %
05.06.2022 04:20 15,9 C 15,0 C 11,7 C 84 % 1016,0 hPa 0,0 l/m 0 min 0 min 0 W/m 6,4 km/h (2 Bft) 95,74 %
05.06.2022 04:22 15,9 C 15,0 C 11,7 C 84 % 1015,9 hPa 0,0 l/m 0 min 0 min 0 W/m 3,2 km/h (1 Bft) 95,74 %
05.06.2022 04:24 15,9 C 15,0 C 11,7 C 84 % 1015,8 hPa 0,0 l/m 0 min 0 min 0 W/m 3,2 km/h (1 Bft) 95,74 %
05.06.2022 04:26 15,9 C 15,0 C 11,7 C 84 % 1015,8 hPa 0,0 l/m 0 min 0 min 0 W/m 6,4 km/h (2 Bft) 91,49 %
05.06.2022 04:28 15,8 C 15,0 C 11,7 C 85 % 1015,7 hPa 0,0 l/m 0 min 0 min 0 W/m 3,2 km/h (1 Bft) 100,00 %
05.06.2022 04:30 15,8 C 15,0 C 11,7 C 85 % 1015,7 hPa 0,0 l/m 0 min 0 min 0 W/m 9,7 km/h (2 Bft) 100,00 %
05.06.2022 04:32 15,8 C 15,0 C 11,7 C 85 % 1015,6 hPa 0,0 l/m 0 min 0 min 0 W/m 6,4 km/h (2 Bft) 97,87 %
05.06.2022 04:34 15,8 C 15,0 C 11,7 C 85 % 1015,5 hPa 0,0 l/m 0 min 0 min 0 W/m 6,4 km/h (2 Bft) 97,87 %
05.06.2022 04:36 15,8 C 15,0 C 11,7 C 85 % 1015,5 hPa 0,0 l/m 0 min 0 min 0 W/m 6,4 km/h (2 Bft) 95,74 %
05.06.2022 04:38 15,8 C 15,0 C 11,7 C 85 % 1015,4 hPa 0,0 l/m 0 min 0 min 0 W/m 3,2 km/h (1 Bft) 97,87 %
05.06.2022 04:40 15,8 C 15,0 C 11,7 C 85 % 1015,5 hPa 0,0 l/m 0 min 0 min 0 W/m 6,4 km/h (2 Bft) 97,87 %
05.06.2022 04:42 15,8 C 15,0 C 11,7 C 85 % 1015,4 hPa 0,0 l/m 0 min 0 min 0 W/m 6,4 km/h (2 Bft) 93,48 %
05.06.2022 04:44 15,8 C 15,0 C 11,7 C 85 % 1015,3 hPa 0,0 l/m 0 min 0 min 0 W/m 3,2 km/h (1 Bft) 97,87 %
05.06.2022 04:46 15,8 C 15,0 C 11,7 C 85 % 1015,3 hPa 0,0 l/m 0 min 0 min 0 W/m 3,2 km/h (1 Bft) 95,74 %
05.06.2022 04:48 15,8 C 15,0 C 11,7 C 85 % 1015,2 hPa 0,0 l/m 0 min 0 min 0 W/m 3,2 km/h (1 Bft) 97,87 %
05.06.2022 04:50 15,8 C 15,0 C 11,7 C 85 % 1015,2 hPa 0,0 l/m 0 min 0 min 0 W/m 6,4 km/h (2 Bft) 97,87 %
05.06.2022 04:52 15,8 C 15,0 C 11,7 C 85 % 1015,2 hPa 0,0 l/m 0 min 0 min 0 W/m 6,4 km/h (2 Bft) 97,87 %
05.06.2022 04:54 15,8 C 15,0 C 11,7 C 85 % 1015,2 hPa 0,0 l/m 0 min 0 min 0 W/m 6,4 km/h (2 Bft) 97,83 %
05.06.2022 04:56 15,8 C 15,0 C 11,7 C 85 % 1015,1 hPa 0,0 l/m 0 min 0 min 0 W/m 3,2 km/h (1 Bft) 97,87 %
05.06.2022 04:58 15,7 C 15,0 C 11,7 C 85 % 1015,0 hPa 0,0 l/m 0 min 0 min 0 W/m 6,4 km/h (2 Bft) 97,67 %
05.06.2022 05:00 15,8 C 15,0 C 11,7 C 85 % 1015,0 hPa 0,0 l/m 0 min 0 min 0 W/m 3,2 km/h (1 Bft) 95,74 %
05.06.2022 05:02 15,7 C 15,0 C 11,7 C 85 % 1015,0 hPa 0,0 l/m 0 min 0 min 0 W/m 3,2 km/h (1 Bft) 97,87 %
05.06.2022 05:04 15,7 C 15,0 C 11,7 C 85 % 1014,8 hPa 0,0 l/m 0 min 0 min 0 W/m 6,4 km/h (2 Bft) 97,83 %
05.06.2022 05:06 15,7 C 15,0 C 11,7 C 85 % 1014,8 hPa 0,0 l/m 0 min 0 min 0 W/m 6,4 km/h (2 Bft) 98,31 %
05.06.2022 05:08 15,7 C 15,0 C 11,7 C 85 % 1014,8 hPa 0,0 l/m 0 min 0 min 0 W/m 3,2 km/h (1 Bft) 94,29 %
05.06.2022 05:10 15,7 C 15,0 C 11,7 C 85 % 1014,8 hPa 0,0 l/m 0 min 0 min 0 W/m 12,9 km/h (3 Bft) 97,87 %
05.06.2022 05:12 15,7 C 15,0 C 11,7 C 85 % 1014,8 hPa 0,0 l/m 0 min 0 min 4 W/m 6,4 km/h (2 Bft) 97,87 %
05.06.2022 05:14 15,7 C 15,0 C 11,7 C 85 % 1014,7 hPa 0,0 l/m 0 min 0 min 5 W/m 6,4 km/h (2 Bft) 97,87 %
05.06.2022 05:16 15,7 C 15,0 C 11,7 C 85 % 1014,7 hPa 0,0 l/m 0 min 0 min 5 W/m 6,4 km/h (2 Bft) 97,83 %
05.06.2022 05:18 15,7 C 15,0 C 11,7 C 85 % 1014,7 hPa 0,0 l/m 0 min 0 min 5 W/m 6,4 km/h (2 Bft) 97,87 %
05.06.2022 05:20 15,7 C 15,0 C 11,7 C 85 % 1014,8 hPa 0,0 l/m 0 min 0 min 5 W/m 6,4 km/h (2 Bft) 97,87 %
05.06.2022 05:22 15,7 C 15,0 C 11,7 C 85 % 1014,8 hPa 0,0 l/m 0 min 0 min 5 W/m 3,2 km/h (1 Bft) 97,87 %
05.06.2022 05:24 15,7 C 15,0 C 11,7 C 85 % 1014,9 hPa 0,0 l/m 0 min 0 min 6 W/m 6,4 km/h (2 Bft) 100,00 %
05.06.2022 05:26 15,8 C 15,0 C 11,7 C 85 % 1014,9 hPa 0,0 l/m 0 min 0 min 7 W/m 6,4 km/h (2 Bft) 100,00 %
05.06.2022 05:28 15,8 C 15,0 C 11,7 C 86 % 1014,9 hPa 0,0 l/m 0 min 0 min 9 W/m 3,2 km/h (1 Bft) 97,83 %
05.06.2022 05:30 15,8 C 15,0 C 11,7 C 85 % 1014,9 hPa 0,0 l/m 0 min 0 min 9 W/m 3,2 km/h (1 Bft) 97,87 %
05.06.2022 05:32 15,8 C 15,0 C 11,7 C 86 % 1014,9 hPa 0,0 l/m 0 min 0 min 9 W/m 3,2 km/h (1 Bft) 100,00 %
05.06.2022 05:34 15,8 C 15,0 C 11,7 C 86 % 1014,9 hPa 0,0 l/m 0 min 0 min 10 W/m 3,2 km/h (1 Bft) 100,00 %
05.06.2022 05:36 15,8 C 15,0 C 11,7 C 86 % 1014,9 hPa 0,0 l/m 0 min 0 min 11 W/m 3,2 km/h (1 Bft) 100,00 %
05.06.2022 05:38 15,8 C 15,0 C 11,7 C 86 % 1014,8 hPa 0,0 l/m 0 min 0 min 11 W/m 3,2 km/h (1 Bft) 100,00 %
05.06.2022 05:40 15,8 C 15,0 C 11,7 C 86 % 1014,8 hPa 0,0 l/m 0 min 0 min 12 W/m 3,2 km/h (1 Bft) 100,00 %
05.06.2022 05:42 15,8 C 15,0 C 11,7 C 86 % 1014,9 hPa 0,0 l/m 0 min 0 min 13 W/m 3,2 km/h (1 Bft) 100,00 %
05.06.2022 05:44 15,8 C 15,0 C 11,7 C 86 % 1014,8 hPa 0,0 l/m 0 min 0 min 15 W/m 3,2 km/h (1 Bft) 100,00 %
05.06.2022 05:46 15,8 C 15,6 C 11,7 C 86 % 1014,8 hPa 0,0 l/m 0 min 0 min 16 W/m 12,9 km/h (3 Bft) 97,87 %
05.06.2022 05:48 15,8 C 15,6 C 12,2 C 86 % 1014,8 hPa 0,0 l/m 0 min 0 min 18 W/m 6,4 km/h (2 Bft) 97,87 %
05.06.2022 05:50 15,8 C 15,6 C 12,2 C 86 % 1014,8 hPa 0,0 l/m 0 min 0 min 18 W/m 6,4 km/h (2 Bft) 97,87 %
05.06.2022 05:52 15,9 C 15,6 C 12,2 C 86 % 1014,8 hPa 0,0 l/m 0 min 0 min 18 W/m 12,9 km/h (3 Bft) 97,83 %
05.06.2022 05:54 15,9 C 15,6 C 12,2 C 86 % 1014,8 hPa 0,0 l/m 0 min 0 min 18 W/m 3,2 km/h (1 Bft) 97,87 %
05.06.2022 05:56 15,9 C 15,6 C 12,2 C 86 % 1014,8 hPa 0,0 l/m 0 min 0 min 19 W/m 6,4 km/h (2 Bft) 95,74 %
05.06.2022 05:58 15,9 C 15,6 C 12,2 C 86 % 1014,8 hPa 0,0 l/m 0 min 0 min 19 W/m 6,4 km/h (2 Bft) 97,87 %
05.06.2022 06:00 16,0 C 15,6 C 12,2 C 86 % 1014,8 hPa 0,0 l/m 0 min 0 min 19 W/m 6,4 km/h (2 Bft) 97,87 %
05.06.2022 06:02 16,0 C 15,6 C 12,2 C 86 % 1014,8 hPa 0,0 l/m 0 min 0 min 20 W/m 3,2 km/h (1 Bft) 97,87 %
05.06.2022 06:04 16,0 C 15,6 C 12,2 C 86 % 1014,8 hPa 0,0 l/m 0 min 0 min 21 W/m 6,4 km/h (2 Bft) 97,83 %
05.06.2022 06:07 16,0 C 15,6 C 12,2 C 86 % 1014,9 hPa 0,0 l/m 0 min 0 min 24 W/m 3,2 km/h (1 Bft) 98,78 %
05.06.2022 06:08 16,1 C 15,6 C 12,2 C 86 % 1014,9 hPa 0,0 l/m 0 min 0 min 25 W/m 6,4 km/h (2 Bft) 91,67 %
05.06.2022 06:10 16,1 C 15,6 C 12,2 C 86 % 1014,9 hPa 0,0 l/m 0 min 0 min 26 W/m 3,2 km/h (1 Bft) 97,87 %
05.06.2022 06:12 16,1 C 15,6 C 12,2 C 86 % 1014,8 hPa 0,0 l/m 0 min 0 min 26 W/m 6,4 km/h (2 Bft) 97,87 %
05.06.2022 06:14 16,1 C 15,6 C 12,2 C 86 % 1014,8 hPa 0,0 l/m 0 min 0 min 28 W/m 6,4 km/h (2 Bft) 97,87 %
05.06.2022 06:16 16,1 C 15,6 C 12,2 C 86 % 1014,7 hPa 0,0 l/m 0 min 0 min 30 W/m 6,4 km/h (2 Bft) 97,83 %
05.06.2022 06:18 16,1 C 15,6 C 12,2 C 86 % 1014,8 hPa 0,0 l/m 0 min 0 min 30 W/m 3,2 km/h (1 Bft) 97,87 %
05.06.2022 06:20 16,1 C 15,6 C 12,2 C 86 % 1014,8 hPa 0,0 l/m 0 min 0 min 31 W/m 3,2 km/h (1 Bft) 100,00 %
05.06.2022 06:22 16,1 C 15,6 C 12,2 C 86 % 1014,8 hPa 0,0 l/m 0 min 0 min 32 W/m 3,2 km/h (1 Bft) 100,00 %
05.06.2022 06:24 16,1 C 15,6 C 12,2 C 86 % 1014,8 hPa 0,0 l/m 0 min 0 min 33 W/m 6,4 km/h (2 Bft) 100,00 %
05.06.2022 06:26 16,2 C 15,6 C 12,2 C 86 % 1014,8 hPa 0,0 l/m 0 min 0 min 33 W/m 3,2 km/h (1 Bft) 100,00 %
05.06.2022 06:28 16,2 C 15,6 C 12,2 C 86 % 1014,8 hPa 0,0 l/m 0 min 0 min 35 W/m 3,2 km/h (1 Bft) 97,83 %
05.06.2022 06:30 16,2 C 15,6 C 12,2 C 85 % 1014,8 hPa 0,0 l/m 0 min 0 min 35 W/m 3,2 km/h (1 Bft) 97,87 %
05.06.2022 06:32 16,2 C 15,6 C 12,2 C 85 % 1014,8 hPa 0,0 l/m 0 min 0 min 36 W/m 6,4 km/h (2 Bft) 97,87 %
05.06.2022 06:34 16,2 C 15,6 C 12,2 C 85 % 1014,8 hPa 0,0 l/m 0 min 0 min 39 W/m 6,4 km/h (2 Bft) 95,74 %
05.06.2022 06:36 16,2 C 15,6 C 12,2 C 85 % 1014,9 hPa 0,0 l/m 0 min 0 min 41 W/m 6,4 km/h (2 Bft) 97,87 %
05.06.2022 06:38 16,2 C 15,6 C 12,2 C 85 % 1014,8 hPa 0,0 l/m 0 min 0 min 43 W/m 3,2 km/h (1 Bft) 97,87 %
05.06.2022 06:40 16,3 C 16,1 C 12,2 C 85 % 1014,9 hPa 0,0 l/m 0 min 0 min 46 W/m 3,2 km/h (1 Bft) 97,83 %
05.06.2022 06:42 16,3 C 16,1 C 12,2 C 85 % 1015,0 hPa 0,0 l/m 0 min 0 min 47 W/m 3,2 km/h (1 Bft) 97,87 %
05.06.2022 06:44 16,3 C 16,1 C 12,2 C 85 % 1015,0 hPa 0,0 l/m 0 min 0 min 47 W/m 6,4 km/h (2 Bft) 97,87 %
05.06.2022 06:46 16,3 C 16,1 C 12,2 C 85 % 1015,1 hPa 0,0 l/m 0 min 0 min 47 W/m 3,2 km/h (1 Bft) 95,74 %
05.06.2022 06:48 16,3 C 16,1 C 12,2 C 85 % 1015,1 hPa 0,0 l/m 0 min 0 min 47 W/m 3,2 km/h (1 Bft) 97,87 %
05.06.2022 06:50 16,3 C 16,1 C 12,8 C 85 % 1015,1 hPa 0,0 l/m 0 min 0 min 46 W/m 6,4 km/h (2 Bft) 97,87 %
05.06.2022 06:52 16,4 C 16,1 C 12,8 C 85 % 1015,1 hPa 0,0 l/m 0 min 0 min 46 W/m 3,2 km/h (1 Bft) 95,65 %
05.06.2022 06:54 16,4 C 16,1 C 12,8 C 85 % 1015,1 hPa 0,0 l/m 0 min 0 min 46 W/m 3,2 km/h (1 Bft) 95,74 %
05.06.2022 06:56 16,4 C 16,1 C 12,8 C 85 % 1015,1 hPa 0,0 l/m 0 min 0 min 44 W/m 9,7 km/h (2 Bft) 97,87 %
05.06.2022 06:58 16,4 C 16,1 C 12,8 C 85 % 1015,1 hPa 0,0 l/m 0 min 0 min 44 W/m 3,2 km/h (1 Bft) 95,74 %
05.06.2022 07:00 16,4 C 16,1 C 12,8 C 85 % 1015,2 hPa 0,0 l/m 0 min 0 min 42 W/m 3,2 km/h (1 Bft) 97,87 %
05.06.2022 07:02 16,4 C 16,1 C 12,8 C 85 % 1015,2 hPa 0,0 l/m 0 min 0 min 40 W/m 3,2 km/h (1 Bft) 95,74 %
05.06.2022 07:04 16,5 C 16,1 C 12,8 C 85 % 1015,3 hPa 0,0 l/m 0 min 0 min 39 W/m 3,2 km/h (1 Bft) 93,48 %
05.06.2022 07:06 16,5 C 16,1 C 12,8 C 85 % 1015,3 hPa 0,0 l/m 0 min 0 min 39 W/m 3,2 km/h (1 Bft) 97,87 %
05.06.2022 07:08 16,6 C 16,1 C 12,8 C 85 % 1015,3 hPa 0,0 l/m 0 min 0 min 39 W/m 3,2 km/h (1 Bft) 97,87 %
05.06.2022 07:10 16,6 C 16,1 C 12,8 C 85 % 1015,3 hPa 0,0 l/m 0 min 0 min 40 W/m 3,2 km/h (1 Bft) 97,87 %
05.06.2022 07:12 16,6 C 16,1 C 12,8 C 85 % 1015,3 hPa 0,0 l/m 0 min 0 min 41 W/m 6,4 km/h (2 Bft) 97,87 %
05.06.2022 07:14 16,6 C 16,1 C 12,8 C 85 % 1015,4 hPa 0,0 l/m 0 min 0 min 42 W/m 3,2 km/h (1 Bft) 93,62 %
05.06.2022 07:16 16,6 C 16,1 C 12,8 C 85 % 1015,4 hPa 0,0 l/m 0 min 0 min 42 W/m 3,2 km/h (1 Bft) 93,48 %
05.06.2022 07:18 16,6 C 16,1 C 12,8 C 85 % 1015,4 hPa 0,0 l/m 0 min 0 min 44 W/m 3,2 km/h (1 Bft) 95,74 %
05.06.2022 07:20 16,6 C 16,1 C 12,8 C 85 % 1015,4 hPa 0,0 l/m 0 min 0 min 48 W/m 3,2 km/h (1 Bft) 95,74 %
05.06.2022 07:22 16,6 C 16,1 C 12,8 C 85 % 1015,4 hPa 0,0 l/m 0 min 0 min 49 W/m 3,2 km/h (1 Bft) 95,74 %
05.06.2022 07:24 16,6 C 16,1 C 12,8 C 85 % 1015,4 hPa 0,0 l/m 0 min 0 min 53 W/m 6,4 km/h (2 Bft) 97,87 %
05.06.2022 07:26 16,7 C 16,1 C 12,8 C 85 % 1015,4 hPa 0,0 l/m 0 min 0 min 55 W/m 6,4 km/h (2 Bft) 97,87 %
05.06.2022 07:28 16,7 C 16,1 C 12,8 C 85 % 1015,3 hPa 0,0 l/m 0 min 0 min 57 W/m 3,2 km/h (1 Bft) 97,83 %
05.06.2022 07:30 16,7 C 16,7 C 12,8 C 85 % 1015,4 hPa 0,0 l/m 0 min 0 min 62 W/m 3,2 km/h (1 Bft) 97,87 %
05.06.2022 07:32 16,7 C 16,7 C 12,8 C 85 % 1015,3 hPa 0,0 l/m 0 min 0 min 64 W/m 6,4 km/h (2 Bft) 93,62 %
05.06.2022 07:34 16,7 C 16,7 C 12,8 C 85 % 1015,3 hPa 0,0 l/m 0 min 0 min 68 W/m 0,0 km/h (0 Bft) 97,87 %
05.06.2022 07:36 16,7 C 16,7 C 12,8 C 85 % 1015,3 hPa 0,0 l/m 0 min 0 min 70 W/m 3,2 km/h (1 Bft) 97,87 %
05.06.2022 07:38 16,7 C 16,7 C 12,8 C 85 % 1015,2 hPa 0,0 l/m 0 min 0 min 73 W/m 6,4 km/h (2 Bft) 97,87 %
05.06.2022 07:40 16,8 C 16,7 C 12,8 C 85 % 1015,2 hPa 0,0 l/m 0 min 0 min 75 W/m 3,2 km/h (1 Bft) 95,65 %
05.06.2022 07:42 16,8 C 16,7 C 12,8 C 85 % 1015,2 hPa 0,0 l/m 0 min 0 min 77 W/m 6,4 km/h (2 Bft) 95,74 %
05.06.2022 07:44 16,8 C 16,7 C 12,8 C 85 % 1015,3 hPa 0,0 l/m 0 min 0 min 82 W/m 6,4 km/h (2 Bft) 95,74 %
05.06.2022 07:46 16,8 C 16,7 C 12,8 C 85 % 1015,2 hPa 0,0 l/m 0 min 0 min 85 W/m 6,4 km/h (2 Bft) 91,49 %
05.06.2022 07:48 16,8 C 16,7 C 12,8 C 85 % 1015,2 hPa 0,0 l/m 0 min 0 min 90 W/m 3,2 km/h (1 Bft) 95,74 %
05.06.2022 07:50 16,8 C 16,7 C 12,8 C 85 % 1015,2 hPa 0,0 l/m 0 min 0 min 91 W/m 6,4 km/h (2 Bft) 95,74 %
05.06.2022 07:52 16,9 C 16,7 C 12,8 C 85 % 1015,1 hPa 0,0 l/m 0 min 0 min 95 W/m 6,4 km/h (2 Bft) 95,65 %
05.06.2022 07:54 16,9 C 16,7 C 13,3 C 85 % 1015,2 hPa 0,0 l/m 0 min 0 min 97 W/m 6,4 km/h (2 Bft) 91,49 %
05.06.2022 07:56 16,9 C 16,7 C 13,3 C 85 % 1015,2 hPa 0,0 l/m 0 min 0 min 98 W/m 3,2 km/h (1 Bft) 97,83 %
05.06.2022 07:58 16,9 C 16,7 C 13,3 C 85 % 1015,1 hPa 0,0 l/m 0 min 0 min 98 W/m 6,4 km/h (2 Bft) 95,74 %
05.06.2022 08:00 17,0 C 17,2 C 13,3 C 85 % 1015,1 hPa 0,0 l/m 0 min 0 min 98 W/m 6,4 km/h (2 Bft) 97,87 %
05.06.2022 08:02 17,0 C 17,2 C 13,3 C 85 % 1015,1 hPa 0,0 l/m 0 min 0 min 97 W/m 6,4 km/h (2 Bft) 95,74 %
05.06.2022 08:04 17,1 C 17,2 C 13,3 C 85 % 1015,0 hPa 0,0 l/m 0 min 0 min 95 W/m 9,7 km/h (2 Bft) 97,83 %
05.06.2022 08:06 17,1 C 17,2 C 13,3 C 85 % 1014,9 hPa 0,0 l/m 0 min 0 min 93 W/m 6,4 km/h (2 Bft) 97,87 %
05.06.2022 08:08 17,1 C 17,2 C 13,3 C 85 % 1014,8 hPa 0,0 l/m 0 min 0 min 91 W/m 6,4 km/h (2 Bft) 97,87 %
05.06.2022 08:10 17,1 C 17,2 C 13,3 C 85 % 1014,7 hPa 0,0 l/m 0 min 0 min 91 W/m 6,4 km/h (2 Bft) 97,87 %
05.06.2022 08:12 17,1 C 17,2 C 13,3 C 85 % 1014,7 hPa 0,0 l/m 0 min 0 min 91 W/m 6,4 km/h (2 Bft) 95,74 %
05.06.2022 08:14 17,2 C 17,2 C 13,3 C 85 % 1014,7 hPa 0,0 l/m 0 min 0 min 91 W/m 6,4 km/h (2 Bft) 100,00 %
05.06.2022 08:16 17,2 C 17,2 C 13,3 C 85 % 1014,7 hPa 0,0 l/m 0 min 0 min 91 W/m 3,2 km/h (1 Bft) 100,00 %
05.06.2022 08:18 17,2 C 17,2 C 13,3 C 85 % 1014,8 hPa 0,0 l/m 0 min 0 min 91 W/m 3,2 km/h (1 Bft) 97,87 %
05.06.2022 08:20 17,2 C 17,2 C 13,3 C 85 % 1014,7 hPa 0,0 l/m 0 min 0 min 94 W/m 3,2 km/h (1 Bft) 100,00 %
05.06.2022 08:22 17,3 C 17,2 C 13,3 C 85 % 1014,7 hPa 0,0 l/m 0 min 0 min 98 W/m 3,2 km/h (1 Bft) 100,00 %
05.06.2022 08:24 17,3 C 17,2 C 13,3 C 85 % 1014,6 hPa 0,0 l/m 0 min 0 min 105 W/m 9,7 km/h (2 Bft) 100,00 %
05.06.2022 08:26 17,3 C 17,2 C 13,3 C 85 % 1014,6 hPa 0,0 l/m 0 min 0 min 110 W/m 3,2 km/h (1 Bft) 100,00 %
05.06.2022 08:28 17,3 C 17,2 C 13,3 C 85 % 1014,6 hPa 0,0 l/m 0 min 0 min 114 W/m 6,4 km/h (2 Bft) 100,00 %
05.06.2022 08:30 17,4 C 17,2 C 13,3 C 85 % 1014,5 hPa 0,0 l/m 0 min 0 min 117 W/m 3,2 km/h (1 Bft) 100,00 %
05.06.2022 08:32 17,4 C 17,8 C 13,9 C 85 % 1014,5 hPa 0,0 l/m 0 min 0 min 119 W/m 3,2 km/h (1 Bft) 100,00 %
05.06.2022 08:34 17,4 C 17,8 C 13,9 C 85 % 1014,5 hPa 0,0 l/m 0 min 0 min 120 W/m 3,2 km/h (1 Bft) 100,00 %
05.06.2022 08:36 17,5 C 17,8 C 13,9 C 85 % 1014,4 hPa 0,0 l/m 0 min 0 min 122 W/m 3,2 km/h (1 Bft) 100,00 %
05.06.2022 08:38 17,5 C 17,8 C 13,9 C 85 % 1014,4 hPa 0,0 l/m 0 min 0 min 124 W/m 6,4 km/h (2 Bft) 100,00 %
05.06.2022 08:40 17,6 C 17,8 C 13,9 C 85 % 1014,3 hPa 0,0 l/m 0 min 0 min 124 W/m 3,2 km/h (1 Bft) 100,00 %
05.06.2022 08:42 17,6 C 17,8 C 13,9 C 85 % 1014,2 hPa 0,0 l/m 0 min 0 min 122 W/m 3,2 km/h (1 Bft) 100,00 %
05.06.2022 08:44 17,6 C 17,8 C 13,9 C 85 % 1014,3 hPa 0,0 l/m 0 min 0 min 120 W/m 6,4 km/h (2 Bft) 97,87 %
05.06.2022 08:46 17,7 C 17,8 C 13,9 C 85 % 1014,2 hPa 0,0 l/m 0 min 0 min 120 W/m 3,2 km/h (1 Bft) 100,00 %
05.06.2022 08:48 17,7 C 17,8 C 13,9 C 85 % 1014,2 hPa 0,0 l/m 0 min 0 min 118 W/m 6,4 km/h (2 Bft) 100,00 %
05.06.2022 08:50 17,7 C 17,8 C 13,9 C 85 % 1014,2 hPa 0,0 l/m 0 min 0 min 120 W/m 3,2 km/h (1 Bft) 100,00 %
05.06.2022 08:52 17,8 C 17,8 C 13,9 C 85 % 1014,1 hPa 0,0 l/m 0 min 0 min 123 W/m 6,4 km/h (2 Bft) 93,62 %
05.06.2022 08:54 17,8 C 17,8 C 13,9 C 84 % 1014,1 hPa 0,0 l/m 0 min 0 min 129 W/m 3,2 km/h (1 Bft) 100,00 %
05.06.2022 08:56 17,9 C 18,3 C 13,9 C 84 % 1014,1 hPa 0,0 l/m 0 min 0 min 133 W/m 3,2 km/h (1 Bft) 100,00 %
05.06.2022 08:58 17,9 C 18,3 C 14,4 C 84 % 1014,0 hPa 0,0 l/m 0 min 0 min 136 W/m 3,2 km/h (1 Bft) 100,00 %
05.06.2022 09:00 18,0 C 18,3 C 14,4 C 84 % 1014,0 hPa 0,0 l/m 0 min 0 min 139 W/m 6,4 km/h (2 Bft) 100,00 %
05.06.2022 09:02 18,0 C 18,3 C 14,4 C 84 % 1013,9 hPa 0,0 l/m 0 min 0 min 141 W/m 6,4 km/h (2 Bft) 100,00 %
05.06.2022 09:04 18,1 C 18,3 C 14,4 C 84 % 1013,9 hPa 0,0 l/m 0 min 0 min 142 W/m 3,2 km/h (1 Bft) 100,00 %
05.06.2022 09:06 18,1 C 18,3 C 14,4 C 84 % 1013,9 hPa 0,0 l/m 0 min 0 min 147 W/m 6,4 km/h (2 Bft) 100,00 %
05.06.2022 09:08 18,1 C 18,3 C 14,4 C 84 % 1013,9 hPa 0,0 l/m 0 min 0 min 158 W/m 6,4 km/h (2 Bft) 100,00 %
05.06.2022 09:10 18,2 C 18,3 C 14,4 C 84 % 1013,9 hPa 0,0 l/m 0 min 0 min 169 W/m 12,9 km/h (3 Bft) 100,00 %
05.06.2022 09:12 18,2 C 18,3 C 14,4 C 84 % 1013,8 hPa 0,0 l/m 0 min 0 min 181 W/m 9,7 km/h (2 Bft) 100,00 %
05.06.2022 09:14 18,3 C 18,9 C 14,4 C 84 % 1013,7 hPa 0,0 l/m 0 min 0 min 194 W/m 6,4 km/h (2 Bft) 100,00 %
05.06.2022 09:16 18,3 C 18,9 C 15,0 C 84 % 1013,7 hPa 0,0 l/m 0 min 0 min 200 W/m 3,2 km/h (1 Bft) 97,87 %
05.06.2022 09:18 18,4 C 18,9 C 15,0 C 84 % 1013,7 hPa 0,0 l/m 0 min 0 min 201 W/m 6,4 km/h (2 Bft) 100,00 %
05.06.2022 09:20 18,4 C 18,9 C 15,0 C 84 % 1013,7 hPa 0,0 l/m 0 min 0 min 199 W/m 6,4 km/h (2 Bft) 97,87 %
05.06.2022 09:22 18,6 C 18,9 C 15,0 C 84 % 1013,7 hPa 0,0 l/m 0 min 0 min 196 W/m 3,2 km/h (1 Bft) 95,74 %
05.06.2022 09:24 18,6 C 18,9 C 15,0 C 83 % 1013,7 hPa 0,0 l/m 0 min 0 min 191 W/m 6,4 km/h (2 Bft) 97,87 %
05.06.2022 09:26 18,6 C 19,4 C 15,0 C 83 % 1013,7 hPa 0,0 l/m 0 min 0 min 190 W/m 3,2 km/h (1 Bft) 95,65 %
05.06.2022 09:28 18,7 C 19,4 C 15,0 C 83 % 1013,7 hPa 0,0 l/m 0 min 0 min 191 W/m 6,4 km/h (2 Bft) 97,87 %
05.06.2022 09:30 18,8 C 19,4 C 15,0 C 83 % 1013,7 hPa 0,0 l/m 0 min 0 min 192 W/m 3,2 km/h (1 Bft) 97,87 %
05.06.2022 09:32 18,8 C 19,4 C 15,0 C 83 % 1013,6 hPa 0,0 l/m 0 min 0 min 200 W/m 6,4 km/h (2 Bft) 97,87 %
05.06.2022 09:34 18,8 C 19,4 C 15,6 C 83 % 1013,7 hPa 0,0 l/m 0 min 0 min 206 W/m 6,4 km/h (2 Bft) 97,87 %
05.06.2022 09:36 18,9 C 19,4 C 15,6 C 83 % 1013,6 hPa 0,0 l/m 0 min 0 min 212 W/m 6,4 km/h (2 Bft) 97,87 %
05.06.2022 09:38 18,9 C 19,4 C 15,6 C 83 % 1013,7 hPa 0,0 l/m 0 min 0 min 217 W/m 6,4 km/h (2 Bft) 95,65 %
05.06.2022 09:40 19,1 C 19,4 C 15,6 C 83 % 1013,6 hPa 0,0 l/m 0 min 0 min 223 W/m 6,4 km/h (2 Bft) 95,74 %
05.06.2022 09:42 19,1 C 19,4 C 15,6 C 82 % 1013,6 hPa 0,0 l/m 0 min 0 min 227 W/m 19,3 km/h (3 Bft) 95,74 %
05.06.2022 09:44 19,2 C 20,0 C 15,6 C 82 % 1013,6 hPa 0,0 l/m 0 min 0 min 223 W/m 9,7 km/h (2 Bft) 95,74 %
05.06.2022 09:46 19,2 C 20,0 C 15,6 C 82 % 1013,6 hPa 0,0 l/m 0 min 0 min 223 W/m 9,7 km/h (2 Bft) 95,74 %
05.06.2022 09:48 19,3 C 20,0 C 15,6 C 82 % 1013,6 hPa 0,0 l/m 0 min 0 min 223 W/m 9,7 km/h (2 Bft) 95,74 %
05.06.2022 09:50 19,3 C 20,0 C 15,6 C 82 % 1013,6 hPa 0,0 l/m 0 min 0 min 223 W/m 6,4 km/h (2 Bft) 93,48 %
05.06.2022 09:52 19,4 C 20,0 C 15,6 C 81 % 1013,6 hPa 0,0 l/m 0 min 0 min 221 W/m 6,4 km/h (2 Bft) 93,62 %
05.06.2022 09:54 19,5 C 20,0 C 15,6 C 81 % 1013,6 hPa 0,0 l/m 0 min 0 min 222 W/m 3,2 km/h (1 Bft) 95,74 %
05.06.2022 09:56 19,6 C 20,0 C 16,1 C 82 % 1013,6 hPa 0,0 l/m 0 min 0 min 225 W/m 6,4 km/h (2 Bft) 95,74 %
05.06.2022 09:58 19,6 C 20,0 C 16,1 C 81 % 1013,6 hPa 0,0 l/m 0 min 0 min 231 W/m 6,4 km/h (2 Bft) 93,62 %
05.06.2022 10:00 19,7 C 20,6 C 16,1 C 81 % 1013,5 hPa 0,0 l/m 0 min 0 min 239 W/m 3,2 km/h (1 Bft) 93,62 %
05.06.2022 10:02 19,7 C 20,6 C 16,1 C 80 % 1013,5 hPa 0,0 l/m 0 min 0 min 245 W/m 6,4 km/h (2 Bft) 97,83 %
05.06.2022 10:04 19,8 C 20,6 C 16,1 C 80 % 1013,6 hPa 0,0 l/m 0 min 0 min 252 W/m 6,4 km/h (2 Bft) 95,74 %
05.06.2022 10:06 19,8 C 20,6 C 16,1 C 80 % 1013,5 hPa 0,0 l/m 0 min 0 min 256 W/m 6,4 km/h (2 Bft) 97,87 %
05.06.2022 10:08 19,9 C 20,6 C 16,1 C 80 % 1013,6 hPa 0,0 l/m 0 min 0 min 265 W/m 6,4 km/h (2 Bft) 95,74 %
05.06.2022 10:10 20,0 C 21,1 C 16,7 C 80 % 1013,5 hPa 0,0 l/m 0 min 0 min 280 W/m 6,4 km/h (2 Bft) 94,34 %
05.06.2022 10:12 20,1 C 21,1 C 16,7 C 80 % 1013,6 hPa 0,0 l/m 0 min 0 min 287 W/m 6,4 km/h (2 Bft) 93,62 %
05.06.2022 10:14 20,1 C 21,1 C 16,7 C 80 % 1013,6 hPa 0,0 l/m 0 min 0 min 290 W/m 6,4 km/h (2 Bft) 95,74 %
05.06.2022 10:16 20,2 C 21,1 C 16,7 C 80 % 1013,6 hPa 0,0 l/m 0 min 0 min 294 W/m 6,4 km/h (2 Bft) 97,83 %
05.06.2022 10:18 20,2 C 21,1 C 16,7 C 80 % 1013,6 hPa 0,0 l/m 0 min 0 min 306 W/m 6,4 km/h (2 Bft) 95,74 %
05.06.2022 10:20 20,3 C 21,7 C 16,7 C 80 % 1013,6 hPa 0,0 l/m 0 min 0 min 326 W/m 6,4 km/h (2 Bft) 97,87 %
05.06.2022 10:22 20,3 C 21,7 C 16,7 C 79 % 1013,5 hPa 0,0 l/m 0 min 0 min 325 W/m 9,7 km/h (2 Bft) 97,87 %
05.06.2022 10:24 20,4 C 21,7 C 16,7 C 79 % 1013,6 hPa 0,0 l/m 0 min 0 min 316 W/m 6,4 km/h (2 Bft) 97,87 %
05.06.2022 10:26 20,5 C 21,7 C 17,2 C 79 % 1013,6 hPa 0,0 l/m 0 min 0 min 303 W/m 3,2 km/h (1 Bft) 93,62 %
05.06.2022 10:28 20,6 C 22,2 C 17,2 C 79 % 1013,6 hPa 0,0 l/m 0 min 0 min 297 W/m 6,4 km/h (2 Bft) 95,65 %
05.06.2022 10:30 20,7 C 22,2 C 17,2 C 79 % 1013,7 hPa 0,0 l/m 0 min 0 min 294 W/m 6,4 km/h (2 Bft) 97,87 %
05.06.2022 10:32 20,7 C 21,7 C 17,2 C 79 % 1013,7 hPa 0,0 l/m 0 min 0 min 304 W/m 6,4 km/h (2 Bft) 97,87 %
05.06.2022 10:34 20,8 C 21,7 C 17,2 C 79 % 1013,7 hPa 0,0 l/m 0 min 0 min 321 W/m 3,2 km/h (1 Bft) 97,87 %
05.06.2022 10:36 20,8 C 21,7 C 17,2 C 79 % 1013,7 hPa 0,0 l/m 0 min 0 min 313 W/m 6,4 km/h (2 Bft) 97,87 %
05.06.2022 10:38 20,9 C 22,2 C 17,2 C 79 % 1013,7 hPa 0,0 l/m 0 min 0 min 294 W/m 6,4 km/h (2 Bft) 97,87 %
05.06.2022 10:40 20,9 C 22,2 C 17,2 C 79 % 1013,6 hPa 0,0 l/m 0 min 0 min 288 W/m 9,7 km/h (2 Bft) 97,83 %
05.06.2022 10:42 21,0 C 22,2 C 17,2 C 79 % 1013,6 hPa 0,0 l/m 0 min 0 min 283 W/m 6,4 km/h (2 Bft) 97,87 %
05.06.2022 10:44 21,1 C 22,2 C 17,2 C 79 % 1013,6 hPa 0,0 l/m 0 min 0 min 267 W/m 3,2 km/h (1 Bft) 97,87 %
05.06.2022 10:46 21,1 C 22,2 C 17,2 C 79 % 1013,5 hPa 0,0 l/m 0 min 0 min 251 W/m 9,7 km/h (2 Bft) 97,87 %
05.06.2022 10:48 21,2 C 22,2 C 17,2 C 79 % 1013,5 hPa 0,0 l/m 0 min 0 min 240 W/m 6,4 km/h (2 Bft) 97,87 %
05.06.2022 10:50 21,2 C 21,7 C 17,2 C 79 % 1013,6 hPa 0,0 l/m 0 min 0 min 230 W/m 6,4 km/h (2 Bft) 97,87 %
05.06.2022 10:52 21,2 C 21,7 C 17,2 C 78 % 1013,5 hPa 0,0 l/m 0 min 0 min 225 W/m 3,2 km/h (1 Bft) 97,83 %
05.06.2022 10:54 21,3 C 21,7 C 17,2 C 79 % 1013,5 hPa 0,0 l/m 0 min 0 min 231 W/m 12,9 km/h (3 Bft) 97,87 %
05.06.2022 10:56 21,3 C 21,7 C 17,2 C 78 % 1013,5 hPa 0,0 l/m 0 min 0 min 234 W/m 3,2 km/h (1 Bft) 97,87 %
05.06.2022 10:58 21,4 C 21,7 C 17,2 C 77 % 1013,5 hPa 0,0 l/m 0 min 0 min 221 W/m 12,9 km/h (3 Bft) 95,74 %
05.06.2022 11:00 21,4 C 21,1 C 17,2 C 76 % 1013,6 hPa 0,0 l/m 0 min 0 min 201 W/m 12,9 km/h (3 Bft) 95,74 %
05.06.2022 11:02 21,4 C 21,1 C 17,2 C 75 % 1013,6 hPa 0,0 l/m 0 min 0 min 182 W/m 9,7 km/h (2 Bft) 97,83 %
05.06.2022 11:04 21,4 C 21,1 C 17,2 C 76 % 1013,6 hPa 0,0 l/m 0 min 0 min 170 W/m 6,4 km/h (2 Bft) 97,87 %
05.06.2022 11:06 21,4 C 21,1 C 17,2 C 75 % 1013,6 hPa 0,0 l/m 0 min 0 min 154 W/m 6,4 km/h (2 Bft) 97,87 %
05.06.2022 11:08 21,4 C 20,6 C 17,2 C 75 % 1013,6 hPa 0,0 l/m 0 min 0 min 143 W/m 16,1 km/h (3 Bft) 100,00 %
05.06.2022 11:10 21,4 C 20,6 C 16,7 C 75 % 1013,5 hPa 0,0 l/m 0 min 0 min 144 W/m 6,4 km/h (2 Bft) 100,00 %
05.06.2022 11:12 21,4 C 20,6 C 16,7 C 76 % 1013,4 hPa 0,0 l/m 0 min 0 min 151 W/m 6,4 km/h (2 Bft) 97,87 %
05.06.2022 11:14 21,4 C 20,6 C 16,7 C 76 % 1013,5 hPa 0,0 l/m 0 min 2 min 155 W/m 6,4 km/h (2 Bft) 100,00 %
05.06.2022 11:16 21,4 C 20,6 C 16,7 C 77 % 1013,5 hPa 0,0 l/m 0 min 2 min 152 W/m 3,2 km/h (1 Bft) 100,00 %
05.06.2022 11:18 21,4 C 20,6 C 16,7 C 77 % 1013,5 hPa 0,0 l/m 0 min 0 min 154 W/m 6,4 km/h (2 Bft) 100,00 %
05.06.2022 11:20 21,4 C 20,6 C 16,7 C 78 % 1013,5 hPa 0,0 l/m 0 min 0 min 155 W/m 6,4 km/h (2 Bft) 100,00 %
05.06.2022 11:22 21,4 C 20,6 C 16,7 C 78 % 1013,5 hPa 0,0 l/m 0 min 0 min 147 W/m 9,7 km/h (2 Bft) 100,00 %
05.06.2022 11:24 21,3 C 20,6 C 16,7 C 78 % 1013,5 hPa 0,0 l/m 0 min 0 min 139 W/m 6,4 km/h (2 Bft) 100,00 %
05.06.2022 11:26 21,3 C 20,6 C 16,7 C 79 % 1013,5 hPa 0,0 l/m 0 min 0 min 152 W/m 12,9 km/h (3 Bft) 100,00 %
05.06.2022 11:28 21,3 C 20,6 C 16,7 C 78 % 1013,4 hPa 0,0 l/m 0 min 0 min 176 W/m 6,4 km/h (2 Bft) 100,00 %
05.06.2022 11:30 21,2 C 20,6 C 16,1 C 78 % 1013,5 hPa 0,0 l/m 0 min 0 min 173 W/m 12,9 km/h (3 Bft) 100,00 %
05.06.2022 11:32 21,1 C 20,0 C 16,1 C 78 % 1013,4 hPa 0,0 l/m 0 min 0 min 149 W/m 16,1 km/h (3 Bft) 100,00 %
05.06.2022 11:34 21,1 C 20,0 C 16,1 C 78 % 1013,5 hPa 0,0 l/m 0 min 0 min 109 W/m 12,9 km/h (3 Bft) 100,00 %
05.06.2022 11:36 21,1 C 20,0 C 16,1 C 78 % 1013,5 hPa 0,0 l/m 0 min 0 min 81 W/m 12,9 km/h (3 Bft) 100,00 %
05.06.2022 11:38 20,9 C 20,0 C 16,1 C 79 % 1013,5 hPa 0,0 l/m 0 min 0 min 76 W/m 12,9 km/h (3 Bft) 100,00 %
05.06.2022 11:40 20,9 C 20,0 C 16,1 C 79 % 1013,5 hPa 0,0 l/m 0 min 0 min 80 W/m 12,9 km/h (3 Bft) 97,83 %
05.06.2022 11:42 20,8 C 20,0 C 16,1 C 79 % 1013,5 hPa 0,0 l/m 0 min 0 min 82 W/m 12,9 km/h (3 Bft) 100,00 %
05.06.2022 11:44 20,7 C 19,4 C 16,1 C 79 % 1013,5 hPa 0,0 l/m 0 min 0 min 81 W/m 16,1 km/h (3 Bft) 100,00 %
05.06.2022 11:46 20,6 C 19,4 C 15,6 C 79 % 1013,5 hPa 0,0 l/m 0 min 2 min 76 W/m 22,5 km/h (4 Bft) 95,74 %
05.06.2022 11:48 20,5 C 18,9 C 14,4 C 80 % 1013,5 hPa 0,0 l/m 0 min 2 min 70 W/m 25,7 km/h (4 Bft) 97,87 %
05.06.2022 11:50 20,3 C 18,9 C 13,9 C 82 % 1013,5 hPa 0,0 l/m 0 min 2 min 64 W/m 19,3 km/h (3 Bft) 97,87 %
05.06.2022 11:52 20,1 C 18,3 C 13,3 C 83 % 1013,6 hPa 0,0 l/m 0 min 2 min 55 W/m 12,9 km/h (3 Bft) 95,65 %
05.06.2022 11:54 19,9 C 17,8 C 13,3 C 85 % 1013,6 hPa 0,0 l/m 0 min 2 min 45 W/m 22,5 km/h (4 Bft) 95,74 %
05.06.2022 11:56 19,7 C 17,8 C 13,3 C 85 % 1013,6 hPa 0,2 l/m 0 min 2 min 41 W/m 12,9 km/h (3 Bft) 93,62 %
05.06.2022 11:58 19,5 C 17,2 C 12,8 C 86 % 1013,6 hPa 0,0 l/m 0 min 2 min 37 W/m 12,9 km/h (3 Bft) 95,74 %
05.06.2022 12:00 19,3 C 17,2 C 12,8 C 87 % 1013,6 hPa 0,2 l/m 0 min 2 min 35 W/m 12,9 km/h (3 Bft) 95,74 %
05.06.2022 12:02 19,1 C 16,7 C 12,8 C 88 % 1013,6 hPa 0,4 l/m 0 min 2 min 37 W/m 12,9 km/h (3 Bft) 95,92 %
05.06.2022 12:04 19,0 C 16,7 C 12,8 C 89 % 1013,6 hPa 0,4 l/m 0 min 2 min 50 W/m 9,7 km/h (2 Bft) 96,00 %
05.06.2022 12:07 18,8 C 16,7 C 12,8 C 90 % 1013,6 hPa 0,6 l/m 0 min 3 min 62 W/m 16,1 km/h (3 Bft) 94,29 %
05.06.2022 12:08 18,7 C 16,7 C 12,8 C 90 % 1013,6 hPa 0,2 l/m 0 min 1 min 76 W/m 3,2 km/h (1 Bft) 100,00 %
05.06.2022 12:10 18,7 C 16,7 C 13,3 C 90 % 1013,5 hPa 0,2 l/m 0 min 2 min 84 W/m 12,9 km/h (3 Bft) 95,65 %
05.06.2022 12:12 18,6 C 16,7 C 13,3 C 91 % 1013,4 hPa 0,2 l/m 0 min 2 min 90 W/m 6,4 km/h (2 Bft) 93,62 %
05.06.2022 12:14 18,6 C 16,7 C 13,3 C 91 % 1013,5 hPa 0,2 l/m 0 min 2 min 95 W/m 9,7 km/h (2 Bft) 95,74 %
05.06.2022 12:16 18,6 C 16,7 C 13,3 C 92 % 1013,5 hPa 0,2 l/m 0 min 2 min 104 W/m 12,9 km/h (3 Bft) 95,74 %
05.06.2022 12:18 18,5 C 16,7 C 13,3 C 92 % 1013,4 hPa 0,0 l/m 0 min 2 min 108 W/m 6,4 km/h (2 Bft) 97,87 %
05.06.2022 12:20 18,5 C 16,7 C 13,3 C 92 % 1013,4 hPa 0,0 l/m 0 min 2 min 117 W/m 6,4 km/h (2 Bft) 97,87 %
05.06.2022 12:22 18,4 C 16,7 C 13,3 C 92 % 1013,4 hPa 0,0 l/m 0 min 2 min 128 W/m 12,9 km/h (3 Bft) 95,65 %
05.06.2022 12:24 18,4 C 16,7 C 13,3 C 93 % 1013,3 hPa 0,0 l/m 0 min 2 min 136 W/m 9,7 km/h (2 Bft) 97,87 %
05.06.2022 12:26 18,4 C 16,7 C 13,3 C 93 % 1013,3 hPa 0,0 l/m 0 min 2 min 141 W/m 25,7 km/h (4 Bft) 97,87 %
05.06.2022 12:28 18,4 C 17,2 C 13,3 C 93 % 1013,4 hPa 0,2 l/m 0 min 2 min 136 W/m 19,3 km/h (3 Bft) 95,74 %
05.06.2022 12:30 18,4 C 17,2 C 13,3 C 93 % 1013,3 hPa 0,0 l/m 0 min 2 min 126 W/m 9,7 km/h (2 Bft) 97,87 %
05.06.2022 12:32 18,4 C 17,2 C 13,3 C 94 % 1013,3 hPa 0,0 l/m 0 min 2 min 115 W/m 16,1 km/h (3 Bft) 97,87 %
05.06.2022 12:34 18,4 C 17,2 C 13,3 C 94 % 1013,2 hPa 0,0 l/m 0 min 2 min 111 W/m 6,4 km/h (2 Bft) 97,83 %
05.06.2022 12:36 18,4 C 17,2 C 13,3 C 94 % 1013,3 hPa 0,0 l/m 0 min 2 min 117 W/m 12,9 km/h (3 Bft) 97,87 %
05.06.2022 12:38 18,4 C 17,2 C 13,3 C 94 % 1013,2 hPa 0,2 l/m 0 min 2 min 120 W/m 6,4 km/h (2 Bft) 100,00 %
05.06.2022 12:40 18,4 C 17,2 C 13,9 C 94 % 1013,2 hPa 0,0 l/m 0 min 2 min 127 W/m 6,4 km/h (2 Bft) 97,87 %
05.06.2022 12:42 18,4 C 17,2 C 13,9 C 95 % 1013,2 hPa 0,0 l/m 0 min 2 min 147 W/m 9,7 km/h (2 Bft) 100,00 %
05.06.2022 12:44 18,4 C 17,8 C 13,9 C 95 % 1013,2 hPa 0,0 l/m 0 min 2 min 170 W/m 9,7 km/h (2 Bft) 100,00 %
05.06.2022 12:46 18,4 C 17,8 C 13,3 C 95 % 1013,2 hPa 0,0 l/m 0 min 2 min 188 W/m 12,9 km/h (3 Bft) 95,65 %
05.06.2022 12:48 18,4 C 17,8 C 13,9 C 95 % 1013,1 hPa 0,0 l/m 0 min 2 min 205 W/m 12,9 km/h (3 Bft) 100,00 %
05.06.2022 12:50 18,4 C 17,8 C 13,9 C 95 % 1013,1 hPa 0,0 l/m 0 min 2 min 213 W/m 12,9 km/h (3 Bft) 100,00 %
05.06.2022 12:52 18,4 C 17,8 C 13,9 C 95 % 1013,1 hPa 0,0 l/m 0 min 2 min 201 W/m 12,9 km/h (3 Bft) 100,00 %
05.06.2022 12:54 18,5 C 17,8 C 13,9 C 95 % 1013,2 hPa 0,0 l/m 0 min 2 min 181 W/m 16,1 km/h (3 Bft) 97,87 %
05.06.2022 12:56 18,5 C 17,8 C 13,9 C 95 % 1013,1 hPa 0,0 l/m 0 min 2 min 182 W/m 6,4 km/h (2 Bft) 97,83 %
05.06.2022 12:58 18,6 C 17,8 C 13,9 C 96 % 1013,1 hPa 0,0 l/m 0 min 2 min 193 W/m 12,9 km/h (3 Bft) 100,00 %
05.06.2022 13:00 18,6 C 17,8 C 13,9 C 96 % 1013,1 hPa 0,0 l/m 0 min 0 min 181 W/m 6,4 km/h (2 Bft) 100,00 %
05.06.2022 13:02 18,6 C 17,8 C 13,9 C 96 % 1013,1 hPa 0,0 l/m 0 min 0 min 167 W/m 6,4 km/h (2 Bft) 100,00 %
05.06.2022 13:04 18,6 C 17,8 C 13,9 C 96 % 1013,1 hPa 0,0 l/m 0 min 0 min 169 W/m 6,4 km/h (2 Bft) 95,74 %
05.06.2022 13:06 18,7 C 18,3 C 13,9 C 96 % 1013,0 hPa 0,0 l/m 0 min 0 min 177 W/m 6,4 km/h (2 Bft) 100,00 %
05.06.2022 13:08 18,7 C 18,3 C 14,4 C 96 % 1013,0 hPa 0,0 l/m 0 min 0 min 190 W/m 3,2 km/h (1 Bft) 97,83 %
05.06.2022 13:10 18,7 C 18,3 C 14,4 C 96 % 1012,9 hPa 0,0 l/m 0 min 0 min 202 W/m 6,4 km/h (2 Bft) 97,87 %
05.06.2022 13:12 18,8 C 18,3 C 13,9 C 96 % 1013,0 hPa 0,0 l/m 0 min 0 min 215 W/m 16,1 km/h (3 Bft) 97,87 %
05.06.2022 13:14 18,8 C 18,3 C 14,4 C 96 % 1012,9 hPa 0,0 l/m 0 min 0 min 232 W/m 12,9 km/h (3 Bft) 95,74 %
05.06.2022 13:16 18,8 C 18,3 C 14,4 C 96 % 1012,8 hPa 0,0 l/m 0 min 0 min 247 W/m 12,9 km/h (3 Bft) 97,87 %
05.06.2022 13:18 18,8 C 18,9 C 14,4 C 96 % 1012,8 hPa 0,0 l/m 0 min 0 min 272 W/m 12,9 km/h (3 Bft) 97,87 %
05.06.2022 13:20 18,9 C 18,9 C 14,4 C 96 % 1012,8 hPa 0,0 l/m 0 min 0 min 317 W/m 12,9 km/h (3 Bft) 95,74 %
05.06.2022 13:22 18,9 C 18,9 C 14,4 C 96 % 1012,8 hPa 0,0 l/m 0 min 0 min 351 W/m 12,9 km/h (3 Bft) 97,83 %
05.06.2022 13:24 19,0 C 18,9 C 14,4 C 96 % 1012,7 hPa 0,0 l/m 0 min 0 min 368 W/m 9,7 km/h (2 Bft) 95,74 %
05.06.2022 13:26 19,1 C 19,4 C 14,4 C 96 % 1012,7 hPa 0,0 l/m 0 min 0 min 386 W/m 19,3 km/h (3 Bft) 97,87 %
05.06.2022 13:28 19,2 C 19,4 C 14,4 C 96 % 1012,6 hPa 0,0 l/m 0 min 0 min 426 W/m 6,4 km/h (2 Bft) 97,87 %
05.06.2022 13:30 19,2 C 19,4 C 15,0 C 96 % 1012,6 hPa 0,0 l/m 0 min 0 min 436 W/m 9,7 km/h (2 Bft) 97,87 %
05.06.2022 13:32 19,3 C 19,4 C 15,0 C 96 % 1012,5 hPa 0,0 l/m 0 min 0 min 415 W/m 12,9 km/h (3 Bft) 95,65 %
05.06.2022 13:34 19,3 C 20,0 C 15,0 C 97 % 1012,5 hPa 0,0 l/m 0 min 0 min 413 W/m 9,7 km/h (2 Bft) 97,87 %
05.06.2022 13:36 19,4 C 20,0 C 15,0 C 97 % 1012,4 hPa 0,0 l/m 0 min 0 min 405 W/m 16,1 km/h (3 Bft) 95,74 %
05.06.2022 13:38 19,4 C 20,0 C 15,0 C 97 % 1012,4 hPa 0,0 l/m 0 min 0 min 402 W/m 12,9 km/h (3 Bft) 97,87 %
05.06.2022 13:40 19,4 C 20,0 C 15,0 C 96 % 1012,4 hPa 0,0 l/m 0 min 0 min 378 W/m 16,1 km/h (3 Bft) 97,87 %
05.06.2022 13:42 19,4 C 20,0 C 15,0 C 96 % 1012,3 hPa 0,0 l/m 0 min 0 min 357 W/m 9,7 km/h (2 Bft) 93,62 %
05.06.2022 13:44 19,6 C 20,0 C 15,0 C 96 % 1012,3 hPa 0,0 l/m 0 min 0 min 336 W/m 12,9 km/h (3 Bft) 97,83 %
05.06.2022 13:46 19,6 C 20,0 C 15,0 C 96 % 1012,2 hPa 0,0 l/m 0 min 0 min 311 W/m 12,9 km/h (3 Bft) 95,74 %
05.06.2022 13:48 19,7 C 20,0 C 15,0 C 96 % 1012,2 hPa 0,0 l/m 0 min 0 min 317 W/m 9,7 km/h (2 Bft) 95,74 %
05.06.2022 13:50 19,7 C 19,4 C 15,0 C 96 % 1012,2 hPa 0,0 l/m 0 min 0 min 324 W/m 12,9 km/h (3 Bft) 95,74 %
05.06.2022 13:52 19,7 C 19,4 C 15,0 C 96 % 1012,1 hPa 0,0 l/m 0 min 0 min 347 W/m 9,7 km/h (2 Bft) 95,74 %
05.06.2022 13:54 19,7 C 19,4 C 15,0 C 96 % 1012,1 hPa 0,0 l/m 0 min 0 min 339 W/m 16,1 km/h (3 Bft) 95,74 %
05.06.2022 13:56 19,7 C 19,4 C 15,0 C 96 % 1012,1 hPa 0,0 l/m 0 min 0 min 357 W/m 12,9 km/h (3 Bft) 93,48 %
05.06.2022 13:58 19,7 C 20,0 C 15,0 C 95 % 1012,0 hPa 0,0 l/m 0 min 0 min 323 W/m 12,9 km/h (3 Bft) 97,87 %
05.06.2022 14:00 19,7 C 20,0 C 15,0 C 95 % 1012,0 hPa 0,0 l/m 0 min 0 min 275 W/m 12,9 km/h (3 Bft) 97,87 %
05.06.2022 14:02 19,7 C 20,0 C 15,0 C 95 % 1011,8 hPa 0,0 l/m 0 min 0 min 322 W/m 9,7 km/h (2 Bft) 97,87 %
05.06.2022 14:04 19,7 C 20,6 C 15,0 C 95 % 1011,6 hPa 0,0 l/m 0 min 0 min 441 W/m 12,9 km/h (3 Bft) 97,87 %
05.06.2022 14:06 19,8 C 21,7 C 15,6 C 95 % 1011,6 hPa 0,0 l/m 2 min 0 min 457 W/m 9,7 km/h (2 Bft) 97,87 %
05.06.2022 14:08 20,0 C 21,7 C 15,6 C 95 % 1011,7 hPa 0,0 l/m 2 min 0 min 457 W/m 12,9 km/h (3 Bft) 97,83 %
05.06.2022 14:10 20,1 C 21,7 C 15,6 C 95 % 1011,7 hPa 0,0 l/m 2 min 0 min 458 W/m 12,9 km/h (3 Bft) 95,74 %
05.06.2022 14:12 20,2 C 21,1 C 15,6 C 95 % 1011,7 hPa 0,0 l/m 0 min 0 min 377 W/m 12,9 km/h (3 Bft) 97,87 %
05.06.2022 14:14 20,2 C 21,1 C 15,0 C 94 % 1011,8 hPa 0,0 l/m 0 min 0 min 315 W/m 12,9 km/h (3 Bft) 97,87 %
05.06.2022 14:16 20,3 C 20,6 C 15,0 C 94 % 1011,7 hPa 0,0 l/m 0 min 0 min 265 W/m 12,9 km/h (3 Bft) 95,74 %
05.06.2022 14:18 20,3 C 20,6 C 15,0 C 94 % 1011,8 hPa 0,0 l/m 0 min 0 min 224 W/m 9,7 km/h (2 Bft) 97,87 %
05.06.2022 14:20 20,3 C 20,6 C 15,0 C 94 % 1011,8 hPa 0,0 l/m 0 min 0 min 202 W/m 6,4 km/h (2 Bft) 97,83 %
05.06.2022 14:22 20,3 C 20,6 C 15,0 C 93 % 1011,8 hPa 0,0 l/m 0 min 0 min 189 W/m 9,7 km/h (2 Bft) 100,00 %
05.06.2022 14:24 20,3 C 20,0 C 15,0 C 93 % 1011,8 hPa 0,0 l/m 0 min 0 min 166 W/m 12,9 km/h (3 Bft) 100,00 %
05.06.2022 14:26 20,3 C 20,0 C 15,0 C 93 % 1011,9 hPa 0,0 l/m 0 min 0 min 169 W/m 9,7 km/h (2 Bft) 100,00 %
05.06.2022 14:28 20,3 C 20,0 C 15,0 C 92 % 1011,7 hPa 0,0 l/m 0 min 0 min 205 W/m 9,7 km/h (2 Bft) 100,00 %
05.06.2022 14:30 20,2 C 20,0 C 15,0 C 92 % 1011,7 hPa 0,0 l/m 0 min 0 min 250 W/m 6,4 km/h (2 Bft) 100,00 %
05.06.2022 14:32 20,2 C 20,0 C 15,6 C 92 % 1011,8 hPa 0,0 l/m 0 min 0 min 261 W/m 12,9 km/h (3 Bft) 97,83 %
05.06.2022 14:34 20,2 C 20,0 C 15,6 C 92 % 1011,7 hPa 0,0 l/m 0 min 0 min 240 W/m 6,4 km/h (2 Bft) 97,87 %
05.06.2022 14:36 20,2 C 20,0 C 15,6 C 92 % 1011,6 hPa 0,0 l/m 0 min 0 min 250 W/m 12,9 km/h (3 Bft) 97,87 %
05.06.2022 14:38 20,2 C 20,6 C 15,6 C 91 % 1011,6 hPa 0,0 l/m 0 min 0 min 256 W/m 9,7 km/h (2 Bft) 97,87 %
05.06.2022 14:40 20,2 C 20,0 C 15,6 C 91 % 1011,5 hPa 0,0 l/m 0 min 0 min 249 W/m 12,9 km/h (3 Bft) 97,87 %
05.06.2022 14:42 20,2 C 20,0 C 15,6 C 91 % 1011,4 hPa 0,0 l/m 0 min 0 min 250 W/m 9,7 km/h (2 Bft) 97,87 %
05.06.2022 14:44 20,2 C 20,6 C 16,1 C 91 % 1011,4 hPa 0,0 l/m 0 min 0 min 254 W/m 19,3 km/h (3 Bft) 97,83 %
05.06.2022 14:46 20,3 C 20,6 C 16,1 C 91 % 1011,4 hPa 0,0 l/m 0 min 0 min 252 W/m 9,7 km/h (2 Bft) 97,87 %
05.06.2022 14:48 20,3 C 20,6 C 16,1 C 91 % 1011,5 hPa 0,0 l/m 0 min 0 min 267 W/m 9,7 km/h (2 Bft) 93,62 %
05.06.2022 14:50 20,3 C 20,6 C 16,1 C 91 % 1011,4 hPa 0,0 l/m 0 min 0 min 291 W/m 9,7 km/h (2 Bft) 97,87 %
05.06.2022 14:52 20,3 C 21,1 C 16,1 C 90 % 1011,4 hPa 0,0 l/m 0 min 0 min 327 W/m 9,7 km/h (2 Bft) 97,87 %
05.06.2022 14:54 20,4 C 21,1 C 16,1 C 90 % 1011,4 hPa 0,0 l/m 0 min 0 min 376 W/m 12,9 km/h (3 Bft) 97,87 %
05.06.2022 14:56 20,5 C 21,7 C 16,7 C 91 % 1011,3 hPa 0,0 l/m 2 min 0 min 435 W/m 12,9 km/h (3 Bft) 97,83 %
05.06.2022 14:58 20,6 C 22,2 C 16,7 C 91 % 1011,3 hPa 0,0 l/m 2 min 0 min 461 W/m 12,9 km/h (3 Bft) 97,87 %
05.06.2022 15:00 20,7 C 22,2 C 16,7 C 91 % 1011,3 hPa 0,0 l/m 2 min 0 min 452 W/m 9,7 km/h (2 Bft) 97,87 %
05.06.2022 15:02 20,8 C 22,2 C 17,2 C 90 % 1011,2 hPa 0,0 l/m 2 min 0 min 440 W/m 9,7 km/h (2 Bft) 93,62 %
05.06.2022 15:04 20,9 C 22,2 C 17,2 C 90 % 1011,2 hPa 0,0 l/m 2 min 0 min 434 W/m 6,4 km/h (2 Bft) 95,74 %
05.06.2022 15:06 21,1 C 22,8 C 17,2 C 90 % 1011,1 hPa 0,0 l/m 2 min 0 min 453 W/m 12,9 km/h (3 Bft) 97,87 %
05.06.2022 15:08 21,2 C 22,8 C 17,2 C 89 % 1011,1 hPa 0,0 l/m 2 min 0 min 493 W/m 16,1 km/h (3 Bft) 97,83 %
05.06.2022 15:10 21,2 C 22,8 C 17,2 C 88 % 1011,1 hPa 0,0 l/m 2 min 0 min 494 W/m 12,9 km/h (3 Bft) 97,87 %
05.06.2022 15:12 21,3 C 22,8 C 17,2 C 88 % 1011,1 hPa 0,0 l/m 2 min 0 min 493 W/m 12,9 km/h (3 Bft) 95,74 %
05.06.2022 15:14 21,4 C 23,3 C 17,8 C 88 % 1011,0 hPa 0,0 l/m 2 min 0 min 561 W/m 9,7 km/h (2 Bft) 97,87 %
05.06.2022 15:16 21,6 C 23,3 C 17,8 C 87 % 1011,0 hPa 0,0 l/m 2 min 0 min 588 W/m 12,9 km/h (3 Bft) 100,00 %
05.06.2022 15:18 21,7 C 23,3 C 17,8 C 87 % 1011,0 hPa 0,0 l/m 2 min 0 min 479 W/m 6,4 km/h (2 Bft) 97,87 %
05.06.2022 15:20 21,9 C 23,9 C 18,3 C 87 % 1011,0 hPa 0,0 l/m 2 min 0 min 498 W/m 9,7 km/h (2 Bft) 100,00 %
05.06.2022 15:22 22,0 C 23,9 C 18,3 C 87 % 1010,9 hPa 0,0 l/m 2 min 0 min 578 W/m 12,9 km/h (3 Bft) 100,00 %
05.06.2022 15:24 22,1 C 23,3 C 18,3 C 86 % 1010,8 hPa 0,0 l/m 2 min 0 min 664 W/m 12,9 km/h (3 Bft) 100,00 %
05.06.2022 15:26 22,2 C 23,3 C 18,3 C 85 % 1010,8 hPa 0,0 l/m 2 min 0 min 491 W/m 9,7 km/h (2 Bft) 97,87 %
05.06.2022 15:28 22,2 C 23,3 C 18,3 C 85 % 1010,8 hPa 0,0 l/m 2 min 0 min 470 W/m 9,7 km/h (2 Bft) 100,00 %
05.06.2022 15:30 22,3 C 23,3 C 18,3 C 84 % 1010,8 hPa 0,0 l/m 0 min 0 min 415 W/m 6,4 km/h (2 Bft) 100,00 %
05.06.2022 15:32 22,3 C 22,8 C 18,3 C 84 % 1010,7 hPa 0,0 l/m 0 min 0 min 270 W/m 12,9 km/h (3 Bft) 100,00 %
05.06.2022 15:34 22,4 C 22,8 C 18,3 C 84 % 1010,8 hPa 0,0 l/m 0 min 0 min 252 W/m 9,7 km/h (2 Bft) 100,00 %
05.06.2022 15:36 22,4 C 22,2 C 18,3 C 84 % 1010,7 hPa 0,0 l/m 0 min 0 min 216 W/m 12,9 km/h (3 Bft) 100,00 %
05.06.2022 15:38 22,3 C 21,7 C 17,8 C 83 % 1010,7 hPa 0,0 l/m 0 min 0 min 135 W/m 12,9 km/h (3 Bft) 95,74 %
05.06.2022 15:40 22,3 C 21,7 C 17,8 C 83 % 1010,8 hPa 0,0 l/m 0 min 0 min 86 W/m 9,7 km/h (2 Bft) 97,87 %
05.06.2022 15:42 22,2 C 21,1 C 17,2 C 83 % 1010,7 hPa 0,0 l/m 0 min 0 min 73 W/m 16,1 km/h (3 Bft) 100,00 %
05.06.2022 15:44 22,1 C 21,1 C 17,2 C 83 % 1010,8 hPa 0,0 l/m 0 min 0 min 66 W/m 12,9 km/h (3 Bft) 97,83 %
05.06.2022 15:46 21,9 C 20,6 C 17,2 C 83 % 1010,7 hPa 0,0 l/m 0 min 0 min 66 W/m 6,4 km/h (2 Bft) 100,00 %
05.06.2022 15:48 21,8 C 20,6 C 17,2 C 83 % 1010,8 hPa 0,0 l/m 0 min 0 min 62 W/m 12,9 km/h (3 Bft) 100,00 %
05.06.2022 15:50 21,7 C 20,6 C 16,7 C 84 % 1010,8 hPa 0,0 l/m 0 min 2 min 54 W/m 16,1 km/h (3 Bft) 95,74 %
05.06.2022 15:52 21,6 C 20,0 C 16,1 C 84 % 1010,8 hPa 0,0 l/m 0 min 2 min 50 W/m 12,9 km/h (3 Bft) 97,87 %
05.06.2022 15:54 21,6 C 20,0 C 15,6 C 85 % 1010,8 hPa 0,0 l/m 0 min 2 min 44 W/m 6,4 km/h (2 Bft) 97,87 %
05.06.2022 15:56 21,5 C 20,0 C 15,6 C 86 % 1010,8 hPa 0,2 l/m 0 min 2 min 42 W/m 9,7 km/h (2 Bft) 97,83 %
05.06.2022 15:58 21,4 C 19,4 C 15,0 C 86 % 1010,8 hPa 0,0 l/m 0 min 2 min 40 W/m 12,9 km/h (3 Bft) 95,74 %
05.06.2022 16:00 21,2 C 19,4 C 15,0 C 86 % 1010,7 hPa 0,0 l/m 0 min 2 min 38 W/m 9,7 km/h (2 Bft) 95,74 %
05.06.2022 16:02 21,1 C 19,4 C 15,0 C 86 % 1010,7 hPa 0,0 l/m 0 min 0 min 33 W/m 12,9 km/h (3 Bft) 93,62 %
05.06.2022 16:04 20,9 C 19,4 C 15,0 C 86 % 1010,7 hPa 0,0 l/m 0 min 0 min 32 W/m 12,9 km/h (3 Bft) 97,87 %
05.06.2022 16:06 20,9 C 19,4 C 15,0 C 87 % 1010,7 hPa 0,0 l/m 0 min 0 min 37 W/m 6,4 km/h (2 Bft) 97,87 %
05.06.2022 16:08 20,8 C 19,4 C 15,0 C 87 % 1010,5 hPa 0,0 l/m 0 min 0 min 41 W/m 6,4 km/h (2 Bft) 95,65 %
05.06.2022 16:10 20,7 C 19,4 C 15,0 C 87 % 1010,4 hPa 0,0 l/m 0 min 0 min 47 W/m 6,4 km/h (2 Bft) 95,74 %
05.06.2022 16:12 20,7 C 19,4 C 15,0 C 88 % 1010,4 hPa 0,0 l/m 0 min 0 min 51 W/m 6,4 km/h (2 Bft) 93,62 %
05.06.2022 16:14 20,6 C 19,4 C 15,0 C 88 % 1010,4 hPa 0,0 l/m 0 min 0 min 53 W/m 9,7 km/h (2 Bft) 95,74 %
05.06.2022 16:16 20,4 C 18,9 C 15,0 C 88 % 1010,5 hPa 0,0 l/m 0 min 0 min 53 W/m 12,9 km/h (3 Bft) 95,74 %
05.06.2022 16:18 20,4 C 18,9 C 15,0 C 89 % 1010,5 hPa 0,0 l/m 0 min 0 min 55 W/m 6,4 km/h (2 Bft) 95,74 %
05.06.2022 16:20 20,3 C 18,9 C 15,0 C 89 % 1010,5 hPa 0,0 l/m 0 min 2 min 58 W/m 9,7 km/h (2 Bft) 95,65 %
05.06.2022 16:22 20,2 C 18,9 C 15,0 C 89 % 1010,5 hPa 0,0 l/m 0 min 2 min 55 W/m 6,4 km/h (2 Bft) 95,74 %
05.06.2022 16:24 20,2 C 18,9 C 14,4 C 90 % 1010,5 hPa 0,0 l/m 0 min 2 min 52 W/m 12,9 km/h (3 Bft) 97,87 %
05.06.2022 16:26 20,1 C 18,9 C 14,4 C 90 % 1010,5 hPa 0,2 l/m 0 min 2 min 50 W/m 19,3 km/h (3 Bft) 97,87 %
05.06.2022 16:28 20,1 C 18,3 C 14,4 C 90 % 1010,5 hPa 0,0 l/m 0 min 2 min 54 W/m 16,1 km/h (3 Bft) 95,74 %
05.06.2022 16:30 20,0 C 18,3 C 14,4 C 90 % 1010,4 hPa 0,2 l/m 0 min 2 min 51 W/m 9,7 km/h (2 Bft) 97,87 %
05.06.2022 16:32 19,9 C 18,3 C 13,9 C 91 % 1010,4 hPa 0,0 l/m 0 min 2 min 41 W/m 12,9 km/h (3 Bft) 97,83 %
05.06.2022 16:34 19,8 C 18,3 C 13,9 C 91 % 1010,3 hPa 0,2 l/m 0 min 2 min 38 W/m 6,4 km/h (2 Bft) 93,62 %
05.06.2022 16:36 19,8 C 17,8 C 14,4 C 91 % 1010,3 hPa 0,0 l/m 0 min 2 min 41 W/m 6,4 km/h (2 Bft) 97,87 %
05.06.2022 16:38 19,7 C 17,8 C 14,4 C 91 % 1010,4 hPa 0,0 l/m 0 min 2 min 39 W/m 6,4 km/h (2 Bft) 97,87 %
05.06.2022 16:40 19,6 C 17,8 C 13,9 C 92 % 1010,3 hPa 0,2 l/m 0 min 2 min 34 W/m 9,7 km/h (2 Bft) 95,74 %
05.06.2022 16:42 19,6 C 17,8 C 14,4 C 92 % 1010,3 hPa 0,2 l/m 0 min 2 min 32 W/m 3,2 km/h (1 Bft) 97,87 %
05.06.2022 16:44 19,5 C 17,8 C 13,9 C 92 % 1010,3 hPa 0,0 l/m 0 min 2 min 29 W/m 9,7 km/h (2 Bft) 97,83 %
05.06.2022 16:46 19,4 C 17,8 C 13,9 C 92 % 1010,3 hPa 0,0 l/m 0 min 2 min 28 W/m 6,4 km/h (2 Bft) 97,87 %
05.06.2022 16:48 19,4 C 17,8 C 13,9 C 93 % 1010,3 hPa 0,2 l/m 0 min 2 min 29 W/m 6,4 km/h (2 Bft) 97,87 %
05.06.2022 16:50 19,3 C 17,8 C 14,4 C 93 % 1010,2 hPa 0,0 l/m 0 min 2 min 35 W/m 6,4 km/h (2 Bft) 95,74 %
05.06.2022 16:52 19,3 C 17,8 C 13,9 C 93 % 1010,3 hPa 0,0 l/m 0 min 2 min 40 W/m 6,4 km/h (2 Bft) 97,87 %
05.06.2022 16:54 19,3 C 17,8 C 13,9 C 93 % 1010,2 hPa 0,0 l/m 0 min 2 min 47 W/m 6,4 km/h (2 Bft) 97,87 %
05.06.2022 16:56 19,2 C 17,8 C 13,9 C 93 % 1010,2 hPa 0,2 l/m 0 min 2 min 57 W/m 6,4 km/h (2 Bft) 100,00 %
05.06.2022 16:58 19,2 C 17,8 C 13,9 C 94 % 1010,2 hPa 0,0 l/m 0 min 2 min 67 W/m 6,4 km/h (2 Bft) 100,00 %
05.06.2022 17:00 19,2 C 17,8 C 14,4 C 94 % 1010,2 hPa 0,2 l/m 0 min 2 min 83 W/m 9,7 km/h (2 Bft) 100,00 %
05.06.2022 17:02 19,2 C 17,8 C 14,4 C 94 % 1010,1 hPa 0,2 l/m 0 min 2 min 104 W/m 6,4 km/h (2 Bft) 100,00 %
05.06.2022 17:04 19,2 C 17,8 C 14,4 C 94 % 1010,0 hPa 0,2 l/m 0 min 2 min 128 W/m 9,7 km/h (2 Bft) 100,00 %
05.06.2022 17:06 19,1 C 17,8 C 14,4 C 95 % 1009,9 hPa 0,0 l/m 0 min 2 min 161 W/m 9,7 km/h (2 Bft) 100,00 %
05.06.2022 17:08 19,1 C 18,3 C 14,4 C 95 % 1009,9 hPa 0,0 l/m 0 min 2 min 207 W/m 9,7 km/h (2 Bft) 100,00 %
05.06.2022 17:10 19,2 C 18,3 C 14,4 C 95 % 1009,9 hPa 0,0 l/m 0 min 0 min 240 W/m 16,1 km/h (3 Bft) 97,83 %
05.06.2022 17:12 19,2 C 18,9 C 15,0 C 95 % 1009,9 hPa 0,0 l/m 0 min 0 min 284 W/m 9,7 km/h (2 Bft) 100,00 %
05.06.2022 17:14 19,2 C 18,9 C 14,4 C 95 % 1009,8 hPa 0,0 l/m 0 min 0 min 231 W/m 12,9 km/h (3 Bft) 93,62 %
05.06.2022 17:16 19,3 C 18,9 C 14,4 C 95 % 1009,8 hPa 0,0 l/m 0 min 0 min 191 W/m 9,7 km/h (2 Bft) 97,87 %
05.06.2022 17:18 19,3 C 18,9 C 14,4 C 96 % 1009,8 hPa 0,0 l/m 0 min 0 min 213 W/m 9,7 km/h (2 Bft) 97,87 %
05.06.2022 17:20 19,3 C 18,9 C 15,0 C 96 % 1009,8 hPa 0,0 l/m 0 min 0 min 264 W/m 6,4 km/h (2 Bft) 95,74 %
05.06.2022 17:22 19,3 C 18,9 C 15,0 C 96 % 1009,7 hPa 0,0 l/m 0 min 0 min 260 W/m 6,4 km/h (2 Bft) 95,65 %
05.06.2022 17:24 19,4 C 18,9 C 15,0 C 96 % 1009,7 hPa 0,0 l/m 0 min 0 min 217 W/m 6,4 km/h (2 Bft) 95,74 %
05.06.2022 17:26 19,5 C 18,9 C 15,0 C 96 % 1009,6 hPa 0,0 l/m 0 min 0 min 184 W/m 9,7 km/h (2 Bft) 97,87 %
05.06.2022 17:28 19,5 C 18,9 C 15,0 C 96 % 1009,6 hPa 0,0 l/m 0 min 0 min 169 W/m 6,4 km/h (2 Bft) 95,74 %
05.06.2022 17:30 19,5 C 18,9 C 15,0 C 96 % 1009,7 hPa 0,0 l/m 0 min 0 min 146 W/m 9,7 km/h (2 Bft) 97,87 %
05.06.2022 17:32 19,5 C 18,9 C 14,4 C 96 % 1009,7 hPa 0,0 l/m 0 min 0 min 82 W/m 9,7 km/h (2 Bft) 97,87 %
05.06.2022 17:34 19,4 C 18,3 C 14,4 C 96 % 1009,7 hPa 0,0 l/m 0 min 0 min 50 W/m 9,7 km/h (2 Bft) 97,83 %
05.06.2022 17:36 19,4 C 18,3 C 14,4 C 96 % 1009,5 hPa 0,0 l/m 0 min 0 min 44 W/m 9,7 km/h (2 Bft) 97,87 %
05.06.2022 17:38 19,4 C 18,3 C 14,4 C 96 % 1009,5 hPa 0,0 l/m 0 min 0 min 43 W/m 19,3 km/h (3 Bft) 95,74 %
05.06.2022 17:40 19,3 C 18,3 C 14,4 C 96 % 1009,4 hPa 0,0 l/m 0 min 0 min 53 W/m 12,9 km/h (3 Bft) 97,87 %
05.06.2022 17:42 19,3 C 18,3 C 14,4 C 96 % 1009,3 hPa 0,0 l/m 0 min 0 min 62 W/m 9,7 km/h (2 Bft) 95,74 %
05.06.2022 17:44 19,3 C 18,3 C 14,4 C 96 % 1009,3 hPa 0,0 l/m 0 min 0 min 51 W/m 9,7 km/h (2 Bft) 97,87 %
05.06.2022 17:46 19,3 C 18,3 C 14,4 C 96 % 1009,2 hPa 0,0 l/m 0 min 0 min 46 W/m 16,1 km/h (3 Bft) 97,87 %
05.06.2022 17:48 19,2 C 18,3 C 14,4 C 96 % 1009,2 hPa 0,0 l/m 0 min 0 min 49 W/m 19,3 km/h (3 Bft) 97,83 %
05.06.2022 17:50 19,2 C 18,3 C 14,4 C 96 % 1009,3 hPa 0,0 l/m 0 min 0 min 53 W/m 16,1 km/h (3 Bft) 93,62 %
05.06.2022 17:52 19,1 C 18,3 C 13,9 C 96 % 1009,3 hPa 0,0 l/m 0 min 0 min 36 W/m 22,5 km/h (4 Bft) 97,87 %
05.06.2022 17:54 19,1 C 18,3 C 14,4 C 96 % 1009,2 hPa 0,0 l/m 0 min 0 min 20 W/m 16,1 km/h (3 Bft) 95,74 %
05.06.2022 17:56 19,1 C 18,3 C 14,4 C 96 % 1009,2 hPa 0,0 l/m 0 min 0 min 14 W/m 19,3 km/h (3 Bft) 95,74 %
05.06.2022 17:58 19,1 C 18,3 C 13,9 C 96 % 1009,2 hPa 0,0 l/m 0 min 0 min 33 W/m 25,7 km/h (4 Bft) 95,65 %
05.06.2022 18:00 19,0 C 18,3 C 13,9 C 96 % 1009,2 hPa 0,2 l/m 0 min 2 min 70 W/m 32,2 km/h (5 Bft) 95,74 %
05.06.2022 18:02 19,0 C 18,3 C 13,9 C 96 % 1009,2 hPa 0,0 l/m 0 min 2 min 132 W/m 35,4 km/h (5 Bft) 93,62 %
05.06.2022 18:04 18,8 C 17,8 C 13,9 C 95 % 1009,4 hPa 0,0 l/m 0 min 2 min 161 W/m 45,1 km/h (6 Bft) 97,87 %
05.06.2022 18:07 18,7 C 17,8 C 13,9 C 95 % 1009,4 hPa 0,0 l/m 0 min 3 min 162 W/m 29,0 km/h (5 Bft) 95,71 %
05.06.2022 18:08 18,6 C 17,8 C 13,9 C 95 % 1009,4 hPa 0,0 l/m 0 min 1 min 138 W/m 16,1 km/h (3 Bft) 91,67 %
05.06.2022 18:10 18,6 C 17,8 C 13,9 C 95 % 1009,3 hPa 0,0 l/m 0 min 2 min 141 W/m 19,3 km/h (3 Bft) 97,87 %
05.06.2022 18:12 18,6 C 17,2 C 13,9 C 95 % 1009,2 hPa 0,0 l/m 0 min 2 min 108 W/m 12,9 km/h (3 Bft) 97,83 %
05.06.2022 18:14 18,4 C 17,2 C 13,9 C 95 % 1009,1 hPa 0,0 l/m 0 min 2 min 75 W/m 16,1 km/h (3 Bft) 54,35 %
05.06.2022 18:16 18,4 C 17,2 C 13,3 C 95 % 1009,1 hPa 0,0 l/m 0 min 2 min 69 W/m 22,5 km/h (4 Bft) 97,78 %
05.06.2022 18:18 18,3 C 17,2 C 13,3 C 95 % 1008,9 hPa 0,0 l/m 0 min 2 min 50 W/m 19,3 km/h (3 Bft) 95,74 %
05.06.2022 18:20 18,3 C 17,2 C 13,3 C 95 % 1009,0 hPa 0,0 l/m 0 min 2 min 56 W/m 32,2 km/h (5 Bft) 97,87 %
05.06.2022 18:22 18,2 C 17,2 C 13,3 C 95 % 1009,0 hPa 0,0 l/m 0 min 2 min 77 W/m 41,8 km/h (6 Bft) 95,65 %
05.06.2022 18:24 18,1 C 17,2 C 12,8 C 95 % 1009,0 hPa 0,0 l/m 0 min 2 min 87 W/m 51,5 km/h (7 Bft) 100,00 %
05.06.2022 18:26 17,9 C 17,2 C 12,8 C 94 % 1009,1 hPa 0,0 l/m 0 min 2 min 95 W/m 61,2 km/h (7 Bft) 100,00 %
05.06.2022 18:28 17,8 C 16,7 C 12,8 C 94 % 1009,3 hPa 0,0 l/m 0 min 2 min 89 W/m 48,3 km/h (6 Bft) 100,00 %
05.06.2022 18:30 17,8 C 16,7 C 13,3 C 94 % 1009,5 hPa 0,0 l/m 0 min 2 min 85 W/m 32,2 km/h (5 Bft) 100,00 %
05.06.2022 18:32 17,9 C 16,7 C 13,3 C 95 % 1009,5 hPa 0,0 l/m 0 min 2 min 84 W/m 38,6 km/h (5 Bft) 100,00 %
05.06.2022 18:34 17,9 C 16,7 C 13,3 C 95 % 1009,8 hPa 0,2 l/m 0 min 2 min 80 W/m 29,0 km/h (5 Bft) 100,00 %
05.06.2022 18:36 17,9 C 16,7 C 13,3 C 95 % 1009,8 hPa 0,2 l/m 0 min 2 min 66 W/m 16,1 km/h (3 Bft) 95,74 %
05.06.2022 18:38 17,9 C 16,7 C 13,3 C 96 % 1009,8 hPa 0,0 l/m 0 min 2 min 53 W/m 16,1 km/h (3 Bft) 97,87 %
05.06.2022 18:40 17,9 C 16,7 C 13,3 C 96 % 1009,9 hPa 0,0 l/m 0 min 2 min 54 W/m 22,5 km/h (4 Bft) 100,00 %
05.06.2022 18:42 17,9 C 16,7 C 13,3 C 96 % 1010,0 hPa 0,2 l/m 0 min 2 min 45 W/m 16,1 km/h (3 Bft) 100,00 %
05.06.2022 18:44 17,9 C 16,7 C 13,3 C 96 % 1010,0 hPa 0,0 l/m 0 min 2 min 52 W/m 19,3 km/h (3 Bft) 100,00 %
05.06.2022 18:46 17,9 C 16,7 C 13,3 C 96 % 1010,1 hPa 0,0 l/m 0 min 2 min 67 W/m 12,9 km/h (3 Bft) 95,65 %
05.06.2022 18:48 17,9 C 16,7 C 13,3 C 96 % 1010,1 hPa 0,0 l/m 0 min 2 min 62 W/m 19,3 km/h (3 Bft) 100,00 %
05.06.2022 18:50 17,9 C 16,7 C 13,3 C 96 % 1010,2 hPa 0,0 l/m 0 min 0 min 67 W/m 19,3 km/h (3 Bft) 100,00 %
05.06.2022 18:52 17,8 C 16,7 C 13,3 C 97 % 1010,2 hPa 0,2 l/m 0 min 2 min 51 W/m 16,1 km/h (3 Bft) 100,00 %
05.06.2022 18:54 17,8 C 16,7 C 13,3 C 97 % 1010,2 hPa 0,0 l/m 0 min 2 min 53 W/m 16,1 km/h (3 Bft) 97,87 %
05.06.2022 18:56 17,7 C 16,7 C 13,3 C 96 % 1010,2 hPa 0,0 l/m 0 min 2 min 62 W/m 22,5 km/h (4 Bft) 97,87 %
05.06.2022 18:58 17,7 C 16,7 C 13,3 C 97 % 1010,2 hPa 0,0 l/m 0 min 2 min 64 W/m 19,3 km/h (3 Bft) 97,83 %
05.06.2022 19:00 17,7 C 16,7 C 13,3 C 97 % 1010,2 hPa 0,0 l/m 0 min 2 min 67 W/m 29,0 km/h (5 Bft) 97,87 %
05.06.2022 19:02 17,6 C 16,7 C 13,3 C 97 % 1010,3 hPa 0,0 l/m 0 min 2 min 60 W/m 19,3 km/h (3 Bft) 95,74 %
05.06.2022 19:04 17,6 C 16,7 C 13,3 C 97 % 1010,3 hPa 0,0 l/m 0 min 2 min 64 W/m 12,9 km/h (3 Bft) 97,87 %
05.06.2022 19:06 17,6 C 16,7 C 13,3 C 97 % 1010,3 hPa 0,0 l/m 0 min 2 min 50 W/m 19,3 km/h (3 Bft) 97,87 %
05.06.2022 19:08 17,6 C 16,7 C 13,3 C 97 % 1010,4 hPa 0,0 l/m 0 min 2 min 40 W/m 6,4 km/h (2 Bft) 97,87 %
05.06.2022 19:10 17,6 C 16,7 C 13,3 C 97 % 1010,4 hPa 0,0 l/m 0 min 2 min 28 W/m 19,3 km/h (3 Bft) 97,83 %
05.06.2022 19:12 17,5 C 16,7 C 13,3 C 97 % 1010,5 hPa 0,0 l/m 0 min 2 min 21 W/m 25,7 km/h (4 Bft) 97,87 %
05.06.2022 19:14 17,5 C 16,7 C 13,3 C 97 % 1010,4 hPa 0,2 l/m 0 min 2 min 20 W/m 19,3 km/h (3 Bft) 97,87 %
05.06.2022 19:16 17,4 C 16,1 C 13,3 C 97 % 1010,4 hPa 0,0 l/m 0 min 2 min 20 W/m 19,3 km/h (3 Bft) 97,87 %
05.06.2022 19:18 17,4 C 16,1 C 13,3 C 97 % 1010,4 hPa 0,0 l/m 0 min 2 min 19 W/m 22,5 km/h (4 Bft) 97,87 %
05.06.2022 19:20 17,4 C 16,1 C 13,3 C 97 % 1010,4 hPa 0,0 l/m 0 min 2 min 21 W/m 22,5 km/h (4 Bft) 97,87 %
05.06.2022 19:22 17,4 C 16,1 C 13,3 C 97 % 1010,4 hPa 0,0 l/m 0 min 2 min 21 W/m 9,7 km/h (2 Bft) 95,65 %
05.06.2022 19:24 17,4 C 16,1 C 13,3 C 97 % 1010,5 hPa 0,0 l/m 0 min 2 min 30 W/m 19,3 km/h (3 Bft) 93,62 %
05.06.2022 19:26 17,4 C 16,1 C 12,8 C 97 % 1010,5 hPa 0,0 l/m 0 min 2 min 22 W/m 12,9 km/h (3 Bft) 97,87 %
05.06.2022 19:28 17,4 C 16,1 C 12,8 C 97 % 1010,5 hPa 0,0 l/m 0 min 2 min 19 W/m 12,9 km/h (3 Bft) 97,87 %
05.06.2022 19:30 17,3 C 16,1 C 13,3 C 97 % 1010,6 hPa 0,0 l/m 0 min 2 min 17 W/m 16,1 km/h (3 Bft) 97,87 %
05.06.2022 19:32 17,3 C 16,1 C 13,3 C 97 % 1010,5 hPa 0,0 l/m 0 min 2 min 14 W/m 25,7 km/h (4 Bft) 95,74 %
05.06.2022 19:34 17,3 C 16,1 C 12,8 C 97 % 1010,6 hPa 0,2 l/m 0 min 2 min 16 W/m 16,1 km/h (3 Bft) 97,83 %
05.06.2022 19:36 17,3 C 16,1 C 12,8 C 97 % 1010,6 hPa 0,0 l/m 0 min 2 min 16 W/m 19,3 km/h (3 Bft) 97,87 %
05.06.2022 19:38 17,3 C 16,1 C 13,3 C 97 % 1010,7 hPa 0,0 l/m 0 min 2 min 13 W/m 19,3 km/h (3 Bft) 97,87 %
05.06.2022 19:40 17,3 C 16,1 C 13,3 C 97 % 1010,8 hPa 0,0 l/m 0 min 2 min 10 W/m 16,1 km/h (3 Bft) 95,74 %
05.06.2022 19:42 17,3 C 16,1 C 12,8 C 97 % 1010,8 hPa 0,0 l/m 0 min 2 min 11 W/m 16,1 km/h (3 Bft) 97,87 %
05.06.2022 19:44 17,3 C 16,1 C 12,8 C 97 % 1010,8 hPa 0,0 l/m 0 min 2 min 11 W/m 12,9 km/h (3 Bft) 97,87 %
05.06.2022 19:46 17,3 C 16,1 C 13,3 C 97 % 1010,9 hPa 0,2 l/m 0 min 2 min 13 W/m 22,5 km/h (4 Bft) 97,83 %
05.06.2022 19:48 17,3 C 16,1 C 12,8 C 97 % 1010,9 hPa 0,0 l/m 0 min 2 min 12 W/m 19,3 km/h (3 Bft) 97,87 %
05.06.2022 19:50 17,3 C 16,1 C 12,8 C 97 % 1010,9 hPa 0,0 l/m 0 min 2 min 12 W/m 19,3 km/h (3 Bft) 97,87 %
05.06.2022 19:52 17,2 C 16,1 C 13,3 C 98 % 1011,0 hPa 0,0 l/m 0 min 2 min 15 W/m 16,1 km/h (3 Bft) 95,74 %
05.06.2022 19:54 17,2 C 16,1 C 12,8 C 98 % 1010,9 hPa 0,0 l/m 0 min 2 min 13 W/m 32,2 km/h (5 Bft) 95,74 %
05.06.2022 19:56 17,2 C 16,1 C 12,8 C 98 % 1011,0 hPa 0,0 l/m 0 min 0 min 10 W/m 16,1 km/h (3 Bft) 97,87 %
05.06.2022 19:58 17,2 C 16,1 C 12,8 C 98 % 1011,0 hPa 0,0 l/m 0 min 0 min 11 W/m 32,2 km/h (5 Bft) 97,83 %
05.06.2022 20:00 17,2 C 16,1 C 12,8 C 98 % 1011,1 hPa 0,0 l/m 0 min 0 min 11 W/m 22,5 km/h (4 Bft) 97,87 %
05.06.2022 20:02 17,1 C 16,1 C 12,8 C 98 % 1011,1 hPa 0,0 l/m 0 min 0 min 11 W/m 32,2 km/h (5 Bft) 95,74 %
05.06.2022 20:04 17,1 C 16,1 C 12,8 C 98 % 1011,1 hPa 0,0 l/m 0 min 0 min 12 W/m 25,7 km/h (4 Bft) 93,62 %
05.06.2022 20:06 17,1 C 16,1 C 12,8 C 98 % 1011,1 hPa 0,0 l/m 0 min 0 min 11 W/m 25,7 km/h (4 Bft) 93,62 %
05.06.2022 20:08 17,1 C 16,1 C 12,8 C 98 % 1011,1 hPa 0,0 l/m 0 min 0 min 9 W/m 16,1 km/h (3 Bft) 95,74 %
05.06.2022 20:10 17,1 C 16,1 C 12,8 C 98 % 1011,1 hPa 0,0 l/m 0 min 0 min 12 W/m 12,9 km/h (3 Bft) 95,65 %
05.06.2022 20:12 17,1 C 16,1 C 12,8 C 98 % 1011,2 hPa 0,0 l/m 0 min 0 min 14 W/m 19,3 km/h (3 Bft) 95,74 %
05.06.2022 20:14 17,1 C 16,1 C 12,8 C 97 % 1011,2 hPa 0,0 l/m 0 min 0 min 15 W/m 19,3 km/h (3 Bft) 93,62 %
05.06.2022 20:16 17,1 C 16,1 C 12,8 C 97 % 1011,3 hPa 0,0 l/m 0 min 0 min 12 W/m 22,5 km/h (4 Bft) 95,74 %
05.06.2022 20:18 17,1 C 16,1 C 12,8 C 98 % 1011,3 hPa 0,0 l/m 0 min 0 min 16 W/m 19,3 km/h (3 Bft) 97,87 %
05.06.2022 20:20 17,1 C 16,1 C 12,8 C 97 % 1011,3 hPa 0,0 l/m 0 min 0 min 18 W/m 22,5 km/h (4 Bft) 97,83 %
05.06.2022 20:22 17,1 C 16,1 C 12,8 C 97 % 1011,4 hPa 0,0 l/m 0 min 0 min 18 W/m 16,1 km/h (3 Bft) 95,74 %
05.06.2022 20:24 17,1 C 16,1 C 12,8 C 97 % 1011,3 hPa 0,0 l/m 0 min 0 min 14 W/m 16,1 km/h (3 Bft) 97,87 %
05.06.2022 20:26 17,1 C 16,1 C 12,8 C 97 % 1011,5 hPa 0,0 l/m 0 min 2 min 11 W/m 19,3 km/h (3 Bft) 97,87 %
05.06.2022 20:28 17,1 C 16,1 C 12,8 C 97 % 1011,5 hPa 0,0 l/m 0 min 2 min 17 W/m 12,9 km/h (3 Bft) 97,87 %
05.06.2022 20:30 17,1 C 16,1 C 12,8 C 97 % 1011,5 hPa 0,0 l/m 0 min 2 min 15 W/m 19,3 km/h (3 Bft) 100,00 %
05.06.2022 20:32 17,0 C 16,1 C 12,8 C 97 % 1011,5 hPa 0,0 l/m 0 min 2 min 15 W/m 19,3 km/h (3 Bft) 97,83 %
05.06.2022 20:34 17,0 C 16,1 C 12,8 C 97 % 1011,6 hPa 0,0 l/m 0 min 2 min 10 W/m 22,5 km/h (4 Bft) 97,87 %
05.06.2022 20:36 17,0 C 16,1 C 12,8 C 97 % 1011,6 hPa 0,0 l/m 0 min 2 min 6 W/m 22,5 km/h (4 Bft) 95,74 %
05.06.2022 20:38 16,9 C 16,1 C 12,8 C 97 % 1011,7 hPa 0,0 l/m 0 min 2 min 7 W/m 19,3 km/h (3 Bft) 95,74 %
05.06.2022 20:40 16,9 C 16,1 C 12,8 C 97 % 1011,7 hPa 0,0 l/m 0 min 2 min 10 W/m 16,1 km/h (3 Bft) 95,74 %
05.06.2022 20:42 16,9 C 16,1 C 12,8 C 97 % 1011,6 hPa 0,0 l/m 0 min 2 min 13 W/m 19,3 km/h (3 Bft) 97,87 %
05.06.2022 20:44 16,9 C 16,1 C 12,8 C 97 % 1011,5 hPa 0,0 l/m 0 min 2 min 18 W/m 22,5 km/h (4 Bft) 95,74 %
05.06.2022 20:46 16,8 C 16,1 C 12,8 C 97 % 1011,6 hPa 0,0 l/m 0 min 2 min 24 W/m 22,5 km/h (4 Bft) 97,83 %
05.06.2022 20:48 16,8 C 16,1 C 12,8 C 97 % 1011,6 hPa 0,0 l/m 0 min 2 min 23 W/m 19,3 km/h (3 Bft) 97,87 %
05.06.2022 20:50 16,8 C 16,1 C 12,8 C 97 % 1011,6 hPa 0,0 l/m 0 min 2 min 19 W/m 16,1 km/h (3 Bft) 97,87 %
05.06.2022 20:52 16,8 C 16,1 C 12,8 C 97 % 1011,6 hPa 0,0 l/m 0 min 0 min 12 W/m 16,1 km/h (3 Bft) 100,00 %
05.06.2022 20:54 16,7 C 16,1 C 12,8 C 97 % 1011,6 hPa 0,0 l/m 0 min 0 min 15 W/m 19,3 km/h (3 Bft) 100,00 %
05.06.2022 20:56 16,7 C 16,1 C 12,8 C 97 % 1011,6 hPa 0,0 l/m 0 min 0 min 13 W/m 19,3 km/h (3 Bft) 100,00 %
05.06.2022 20:58 16,7 C 16,1 C 12,8 C 97 % 1011,6 hPa 0,0 l/m 0 min 0 min 12 W/m 19,3 km/h (3 Bft) 95,74 %
05.06.2022 21:00 16,8 C 16,1 C 12,8 C 97 % 1011,6 hPa 0,0 l/m 0 min 0 min 11 W/m 12,9 km/h (3 Bft) 100,00 %
05.06.2022 21:02 16,8 C 16,1 C 12,8 C 97 % 1011,6 hPa 0,0 l/m 0 min 0 min 11 W/m 12,9 km/h (3 Bft) 100,00 %
05.06.2022 21:04 16,8 C 16,1 C 12,8 C 97 % 1011,5 hPa 0,0 l/m 0 min 0 min 11 W/m 16,1 km/h (3 Bft) 100,00 %
05.06.2022 21:06 16,8 C 16,1 C 12,8 C 97 % 1011,5 hPa 0,0 l/m 0 min 0 min 12 W/m 9,7 km/h (2 Bft) 100,00 %
05.06.2022 21:08 16,8 C 16,1 C 12,8 C 97 % 1011,5 hPa 0,0 l/m 0 min 0 min 27 W/m 19,3 km/h (3 Bft) 97,83 %
05.06.2022 21:10 16,8 C 16,1 C 12,8 C 97 % 1011,4 hPa 0,0 l/m 2 min 0 min 34 W/m 16,1 km/h (3 Bft) 100,00 %
05.06.2022 21:12 16,8 C 16,1 C 12,8 C 97 % 1011,5 hPa 0,0 l/m 2 min 0 min 33 W/m 12,9 km/h (3 Bft) 100,00 %
05.06.2022 21:14 16,8 C 16,1 C 12,8 C 97 % 1011,4 hPa 0,0 l/m 2 min 0 min 31 W/m 16,1 km/h (3 Bft) 100,00 %
05.06.2022 21:16 16,7 C 16,1 C 12,8 C 97 % 1011,3 hPa 0,0 l/m 2 min 0 min 28 W/m 16,1 km/h (3 Bft) 100,00 %
05.06.2022 21:18 16,7 C 16,1 C 12,8 C 97 % 1011,4 hPa 0,0 l/m 2 min 0 min 26 W/m 22,5 km/h (4 Bft) 100,00 %
05.06.2022 21:20 16,7 C 16,1 C 12,8 C 97 % 1011,3 hPa 0,0 l/m 2 min 0 min 24 W/m 16,1 km/h (3 Bft) 100,00 %
05.06.2022 21:22 16,7 C 16,1 C 12,8 C 97 % 1011,4 hPa 0,2 l/m 2 min 0 min 20 W/m 16,1 km/h (3 Bft) 100,00 %
05.06.2022 21:24 16,7 C 16,1 C 12,2 C 97 % 1011,5 hPa 0,0 l/m 0 min 0 min 19 W/m 12,9 km/h (3 Bft) 100,00 %
05.06.2022 21:26 16,7 C 15,6 C 12,2 C 97 % 1011,5 hPa 0,0 l/m 0 min 0 min 15 W/m 19,3 km/h (3 Bft) 97,87 %
05.06.2022 21:28 16,6 C 15,6 C 12,2 C 97 % 1011,5 hPa 0,0 l/m 0 min 0 min 11 W/m 19,3 km/h (3 Bft) 100,00 %
05.06.2022 21:30 16,6 C 15,6 C 12,2 C 97 % 1011,5 hPa 0,0 l/m 0 min 0 min 9 W/m 16,1 km/h (3 Bft) 100,00 %
05.06.2022 21:32 16,6 C 15,6 C 12,2 C 97 % 1011,5 hPa 0,0 l/m 0 min 0 min 9 W/m 19,3 km/h (3 Bft) 93,48 %
05.06.2022 21:34 16,6 C 15,6 C 12,2 C 97 % 1011,5 hPa 0,0 l/m 0 min 0 min 8 W/m 22,5 km/h (4 Bft) 97,87 %
05.06.2022 21:36 16,6 C 15,6 C 12,2 C 97 % 1011,7 hPa 0,0 l/m 0 min 0 min 6 W/m 22,5 km/h (4 Bft) 100,00 %
05.06.2022 21:38 16,5 C 15,6 C 12,2 C 97 % 1011,8 hPa 0,0 l/m 0 min 0 min 5 W/m 16,1 km/h (3 Bft) 100,00 %
05.06.2022 21:40 16,5 C 15,6 C 12,2 C 97 % 1011,7 hPa 0,0 l/m 0 min 0 min 1 W/m 12,9 km/h (3 Bft) 95,74 %
05.06.2022 21:42 16,4 C 15,6 C 12,2 C 97 % 1011,8 hPa 0,0 l/m 0 min 0 min 0 W/m 12,9 km/h (3 Bft) 97,87 %
05.06.2022 21:44 16,4 C 15,6 C 12,2 C 97 % 1011,9 hPa 0,0 l/m 0 min 0 min 0 W/m 12,9 km/h (3 Bft) 95,65 %
05.06.2022 21:46 16,4 C 15,6 C 12,2 C 97 % 1012,0 hPa 0,0 l/m 0 min 0 min 0 W/m 19,3 km/h (3 Bft) 97,87 %
05.06.2022 21:48 16,4 C 15,6 C 12,2 C 97 % 1012,0 hPa 0,0 l/m 0 min 0 min 0 W/m 16,1 km/h (3 Bft) 95,74 %
05.06.2022 21:50 16,4 C 15,6 C 12,2 C 96 % 1012,1 hPa 0,0 l/m 0 min 0 min 0 W/m 19,3 km/h (3 Bft) 95,74 %
05.06.2022 21:52 16,4 C 15,6 C 12,2 C 96 % 1012,3 hPa 0,0 l/m 0 min 0 min 0 W/m 16,1 km/h (3 Bft) 95,74 %
05.06.2022 21:54 16,3 C 15,6 C 12,2 C 96 % 1012,3 hPa 0,0 l/m 0 min 0 min 0 W/m 12,9 km/h (3 Bft) 95,74 %
05.06.2022 21:56 16,3 C 15,6 C 12,2 C 96 % 1012,5 hPa 0,0 l/m 0 min 0 min 0 W/m 19,3 km/h (3 Bft) 95,65 %
05.06.2022 21:58 16,3 C 15,6 C 12,2 C 96 % 1012,5 hPa 0,0 l/m 0 min 0 min 0 W/m 12,9 km/h (3 Bft) 95,74 %
05.06.2022 22:00 16,4 C 15,6 C 12,2 C 96 % 1012,5 hPa 0,0 l/m 0 min 0 min 0 W/m 19,3 km/h (3 Bft) 95,74 %
05.06.2022 22:02 16,4 C 15,6 C 12,2 C 96 % 1012,5 hPa 0,0 l/m 0 min 0 min 0 W/m 12,9 km/h (3 Bft) 95,74 %
05.06.2022 22:04 16,4 C 15,6 C 12,2 C 96 % 1012,5 hPa 0,0 l/m 0 min 0 min 0 W/m 12,9 km/h (3 Bft) 95,74 %
05.06.2022 22:06 16,4 C 15,6 C 12,2 C 96 % 1012,6 hPa 0,0 l/m 0 min 0 min 0 W/m 12,9 km/h (3 Bft) 95,74 %
05.06.2022 22:08 16,4 C 15,6 C 12,2 C 96 % 1012,7 hPa 0,0 l/m 0 min 0 min 0 W/m 16,1 km/h (3 Bft) 93,48 %
05.06.2022 22:10 16,4 C 15,6 C 12,2 C 96 % 1012,6 hPa 0,0 l/m 0 min 0 min 0 W/m 9,7 km/h (2 Bft) 95,74 %
05.06.2022 22:12 16,4 C 15,6 C 12,2 C 96 % 1012,7 hPa 0,0 l/m 0 min 0 min 0 W/m 9,7 km/h (2 Bft) 95,74 %
05.06.2022 22:14 16,4 C 15,6 C 12,2 C 96 % 1012,7 hPa 0,0 l/m 0 min 0 min 0 W/m 9,7 km/h (2 Bft) 97,87 %
05.06.2022 22:16 16,4 C 15,6 C 12,2 C 96 % 1012,7 hPa 0,0 l/m 0 min 0 min 0 W/m 12,9 km/h (3 Bft) 97,87 %
05.06.2022 22:18 16,4 C 15,6 C 12,2 C 96 % 1012,7 hPa 0,0 l/m 0 min 0 min 0 W/m 6,4 km/h (2 Bft) 95,74 %
05.06.2022 22:20 16,4 C 15,6 C 12,2 C 96 % 1012,7 hPa 0,0 l/m 0 min 0 min 0 W/m 12,9 km/h (3 Bft) 97,83 %
05.06.2022 22:22 16,4 C 15,6 C 12,2 C 96 % 1012,7 hPa 0,0 l/m 0 min 0 min 0 W/m 16,1 km/h (3 Bft) 97,87 %
05.06.2022 22:24 16,4 C 15,6 C 12,2 C 96 % 1012,7 hPa 0,0 l/m 0 min 0 min 0 W/m 6,4 km/h (2 Bft) 97,87 %
05.06.2022 22:26 16,4 C 15,6 C 12,2 C 96 % 1012,7 hPa 0,0 l/m 0 min 0 min 0 W/m 9,7 km/h (2 Bft) 97,87 %
05.06.2022 22:28 16,4 C 15,6 C 12,2 C 96 % 1012,6 hPa 0,0 l/m 0 min 0 min 0 W/m 6,4 km/h (2 Bft) 97,87 %
05.06.2022 22:30 16,4 C 15,6 C 12,2 C 96 % 1012,7 hPa 0,0 l/m 0 min 0 min 0 W/m 16,1 km/h (3 Bft) 97,87 %
05.06.2022 22:32 16,4 C 15,6 C 12,2 C 96 % 1012,7 hPa 0,0 l/m 0 min 0 min 0 W/m 12,9 km/h (3 Bft) 97,83 %
05.06.2022 22:34 16,4 C 15,6 C 12,2 C 96 % 1012,7 hPa 0,0 l/m 0 min 0 min 0 W/m 12,9 km/h (3 Bft) 100,00 %
05.06.2022 22:36 16,4 C 15,6 C 12,2 C 96 % 1012,6 hPa 0,0 l/m 0 min 0 min 0 W/m 12,9 km/h (3 Bft) 100,00 %
05.06.2022 22:38 16,4 C 15,6 C 12,2 C 96 % 1012,7 hPa 0,0 l/m 0 min 0 min 0 W/m 12,9 km/h (3 Bft) 100,00 %
05.06.2022 22:40 16,4 C 15,6 C 12,2 C 96 % 1012,7 hPa 0,0 l/m 0 min 0 min 0 W/m 9,7 km/h (2 Bft) 100,00 %
05.06.2022 22:42 16,4 C 15,6 C 12,2 C 96 % 1012,7 hPa 0,0 l/m 0 min 0 min 0 W/m 6,4 km/h (2 Bft) 100,00 %
05.06.2022 22:44 16,3 C 15,6 C 12,2 C 96 % 1012,7 hPa 0,0 l/m 0 min 0 min 0 W/m 12,9 km/h (3 Bft) 100,00 %
05.06.2022 22:46 16,3 C 15,6 C 12,2 C 96 % 1012,7 hPa 0,0 l/m 0 min 0 min 0 W/m 12,9 km/h (3 Bft) 100,00 %
05.06.2022 22:48 16,3 C 15,6 C 12,2 C 96 % 1012,7 hPa 0,0 l/m 0 min 0 min 0 W/m 12,9 km/h (3 Bft) 100,00 %
05.06.2022 22:50 16,3 C 15,6 C 12,2 C 96 % 1012,7 hPa 0,0 l/m 0 min 0 min 0 W/m 16,1 km/h (3 Bft) 100,00 %
05.06.2022 22:52 16,3 C 15,6 C 12,2 C 96 % 1012,7 hPa 0,0 l/m 0 min 0 min 0 W/m 6,4 km/h (2 Bft) 98,18 %
05.06.2022 22:54 16,3 C 15,6 C 12,2 C 96 % 1012,7 hPa 0,0 l/m 0 min 0 min 0 W/m 6,4 km/h (2 Bft) 100,00 %
05.06.2022 22:56 16,3 C 15,6 C 12,2 C 96 % 1012,8 hPa 0,0 l/m 0 min 0 min 0 W/m 9,7 km/h (2 Bft) 97,14 %
05.06.2022 22:58 16,3 C 15,6 C 12,2 C 97 % 1012,8 hPa 0,0 l/m 0 min 0 min 0 W/m 9,7 km/h (2 Bft) 95,74 %
05.06.2022 23:00 16,3 C 15,6 C 12,2 C 97 % 1012,8 hPa 0,0 l/m 0 min 0 min 0 W/m 12,9 km/h (3 Bft) 98,18 %
05.06.2022 23:02 16,3 C 15,6 C 12,2 C 97 % 1012,8 hPa 0,0 l/m 0 min 0 min 0 W/m 6,4 km/h (2 Bft) 94,00 %
05.06.2022 23:04 16,3 C 15,6 C 12,2 C 97 % 1012,9 hPa 0,0 l/m 0 min 0 min 0 W/m 9,7 km/h (2 Bft) 97,87 %
05.06.2022 23:06 16,2 C 15,0 C 12,2 C 97 % 1013,0 hPa 0,0 l/m 0 min 0 min 0 W/m 6,4 km/h (2 Bft) 97,87 %
05.06.2022 23:08 16,2 C 15,0 C 12,2 C 97 % 1013,0 hPa 0,0 l/m 0 min 0 min 0 W/m 3,2 km/h (1 Bft) 95,65 %
05.06.2022 23:10 16,2 C 15,0 C 12,2 C 96 % 1013,0 hPa 0,0 l/m 0 min 0 min 0 W/m 3,2 km/h (1 Bft) 97,22 %
05.06.2022 23:12 16,2 C 15,0 C 12,2 C 96 % 1013,0 hPa 0,0 l/m 0 min 0 min 0 W/m 12,9 km/h (3 Bft) 97,87 %
05.06.2022 23:14 16,2 C 15,0 C 12,2 C 97 % 1013,0 hPa 0,0 l/m 0 min 0 min 0 W/m 6,4 km/h (2 Bft) 95,74 %
05.06.2022 23:16 16,2 C 15,0 C 12,2 C 97 % 1013,0 hPa 0,0 l/m 0 min 0 min 0 W/m 12,9 km/h (3 Bft) 97,87 %
05.06.2022 23:18 16,2 C 15,0 C 12,2 C 97 % 1013,0 hPa 0,0 l/m 0 min 0 min 0 W/m 12,9 km/h (3 Bft) 97,87 %
05.06.2022 23:20 16,2 C 15,0 C 12,2 C 97 % 1013,0 hPa 0,0 l/m 0 min 0 min 0 W/m 6,4 km/h (2 Bft) 97,83 %
05.06.2022 23:22 16,2 C 15,6 C 12,2 C 97 % 1013,1 hPa 0,0 l/m 0 min 0 min 0 W/m 12,9 km/h (3 Bft) 95,74 %
05.06.2022 23:24 16,2 C 15,6 C 12,2 C 97 % 1013,2 hPa 0,0 l/m 0 min 0 min 0 W/m 6,4 km/h (2 Bft) 97,87 %
05.06.2022 23:26 16,2 C 15,6 C 12,2 C 97 % 1013,2 hPa 0,0 l/m 0 min 0 min 0 W/m 6,4 km/h (2 Bft) 97,87 %
05.06.2022 23:28 16,2 C 15,6 C 12,2 C 97 % 1013,2 hPa 0,0 l/m 0 min 0 min 0 W/m 6,4 km/h (2 Bft) 97,87 %
05.06.2022 23:30 16,2 C 15,6 C 12,2 C 97 % 1013,3 hPa 0,0 l/m 0 min 0 min 0 W/m 6,4 km/h (2 Bft) 97,83 %
05.06.2022 23:32 16,2 C 15,6 C 12,2 C 97 % 1013,3 hPa 0,0 l/m 0 min 0 min 0 W/m 3,2 km/h (1 Bft) 93,62 %
05.06.2022 23:34 16,2 C 15,6 C 12,2 C 97 % 1013,3 hPa 0,0 l/m 0 min 0 min 0 W/m 6,4 km/h (2 Bft) 93,62 %
05.06.2022 23:36 16,3 C 15,6 C 12,2 C 97 % 1013,4 hPa 0,0 l/m 0 min 0 min 0 W/m 6,4 km/h (2 Bft) 95,74 %
05.06.2022 23:38 16,3 C 15,6 C 12,2 C 97 % 1013,4 hPa 0,0 l/m 0 min 0 min 0 W/m 6,4 km/h (2 Bft) 95,74 %
05.06.2022 23:40 16,3 C 15,6 C 12,2 C 97 % 1013,4 hPa 0,0 l/m 0 min 0 min 0 W/m 9,7 km/h (2 Bft) 95,74 %
05.06.2022 23:42 16,3 C 15,6 C 12,2 C 97 % 1013,6 hPa 0,0 l/m 0 min 0 min 0 W/m 3,2 km/h (1 Bft) 95,74 %
05.06.2022 23:44 16,3 C 15,6 C 12,2 C 97 % 1013,5 hPa 0,0 l/m 0 min 0 min 0 W/m 3,2 km/h (1 Bft) 97,83 %
05.06.2022 23:46 16,4 C 15,6 C 12,2 C 97 % 1013,6 hPa 0,0 l/m 0 min 0 min 0 W/m 3,2 km/h (1 Bft) 97,87 %
05.06.2022 23:48 16,4 C 15,6 C 12,8 C 97 % 1013,6 hPa 0,0 l/m 0 min 0 min 0 W/m 3,2 km/h (1 Bft) 95,74 %
05.06.2022 23:50 16,4 C 15,6 C 12,2 C 97 % 1013,6 hPa 0,0 l/m 0 min 0 min 0 W/m 6,4 km/h (2 Bft) 95,74 %
05.06.2022 23:52 16,4 C 15,6 C 12,2 C 97 % 1013,6 hPa 0,0 l/m 0 min 0 min 0 W/m 6,4 km/h (2 Bft) 97,87 %
05.06.2022 23:54 16,5 C 15,6 C 12,2 C 97 % 1013,6 hPa 0,0 l/m 0 min 0 min 0 W/m 6,4 km/h (2 Bft) 97,87 %
05.06.2022 23:56 16,5 C 15,6 C 12,8 C 97 % 1013,7 hPa 0,0 l/m 0 min 0 min 0 W/m 6,4 km/h (2 Bft) 97,83 %
05.06.2022 23:58 16,5 C 15,6 C 12,8 C 97 % 1013,7 hPa 0,0 l/m 0 min 0 min 0 W/m 6,4 km/h (2 Bft) 95,74 %
_ Min-Zeit 04:58 04:06 04:06 00:00 18:18 - - - - 07:34 00:02
Minimum _ 15,7 C 15,0 C 11,7 C 70 % 1008,9 hPa - - - - 0,0 km/h (0 Bft) 11,11 %
_ Max-Zeit 15:34 15:20 15:20 19:52 00:16 12:07 14:06 12:07 15:24 18:26 00:16
Maximum _ 22,4 C 23,9 C 18,3 C 98 % 1018,4 hPa 0,6 l/m 2 min 3 min 664 W/m 61,2 km/h
S-SW (7 Bft)
100,00 %
Durchschnitt _ 18,2 C 17,6 C 13,8 C 88 % 1013,5 hPa #7,2 l/m #54 min. #4:40 h 131 W/m 9,8 km/h (2 Bft) 97,29 %
© 2022 W. Hausmann